Time,TemperatureF,DewpointF,PressureIn,WindDirection,WindDirectionDegrees,WindSpeedMPH,WindSpeedGustMPH,Humidity,HourlyPrecipIn,Conditions,Clouds,dailyrainin,SoftwareType,DateUTC
2013-01-18 00:00:00,34.2,19.6,29.91,West,270,4.5,7.6,55,0.00,,,0.00,WUHU216HW,2013-01-18 07:00:00,
2013-01-18 00:01:00,34.2,19.6,29.91,West,270,6.7,7.6,55,0.00,,,0.00,WUHU216HW,2013-01-18 07:01:00,
2013-01-18 00:03:00,34.4,19.8,29.91,West,270,6.7,7.6,55,0.00,,,0.00,WUHU216HW,2013-01-18 07:03:00,
2013-01-18 00:04:00,34.2,19.6,29.91,WNW,293,6.7,7.6,55,0.00,,,0.00,WUHU216HW,2013-01-18 07:04:00,
2013-01-18 00:05:00,34.4,19.8,29.91,NW,315,4.7,7.6,55,0.00,,,0.00,WUHU216HW,2013-01-18 07:05:00,
2013-01-18 00:06:00,34.4,19.8,29.91,West,270,4.0,7.6,55,0.00,,,0.00,WUHU216HW,2013-01-18 07:06:00,
2013-01-18 00:08:00,34.4,19.8,29.91,West,270,8.5,8.5,55,0.00,,,0.00,WUHU216HW,2013-01-18 07:08:00,
2013-01-18 00:09:00,34.4,19.8,29.91,WNW,293,2.5,8.5,55,0.00,,,0.00,WUHU216HW,2013-01-18 07:09:00,
2013-01-18 00:10:00,34.4,19.8,29.91,North,0,7.6,8.5,55,0.00,,,0.00,WUHU216HW,2013-01-18 07:10:00,
2013-01-18 00:12:00,34.4,19.8,29.91,WNW,293,5.1,8.5,55,0.00,,,0.00,WUHU216HW,2013-01-18 07:12:00,
2013-01-18 00:13:00,34.4,19.8,29.91,WNW,293,5.4,8.5,55,0.00,,,0.00,WUHU216HW,2013-01-18 07:13:00,
2013-01-18 00:14:00,34.4,19.8,29.91,WNW,293,5.4,8.5,55,0.00,,,0.00,WUHU216HW,2013-01-18 07:14:00,
2013-01-18 00:15:00,34.4,19.8,29.91,West,270,6.3,8.5,55,0.00,,,0.00,WUHU216HW,2013-01-18 07:15:00,
2013-01-18 00:17:00,34.4,19.8,29.91,NW,315,4.0,8.5,55,0.00,,,0.00,WUHU216HW,2013-01-18 07:17:00,
2013-01-18 00:18:00,34.2,19.6,29.92,West,270,6.0,7.6,55,0.00,,,0.00,WUHU216HW,2013-01-18 07:18:00,
2013-01-18 00:19:00,34.2,19.6,29.91,WNW,293,7.2,7.6,55,0.00,,,0.00,WUHU216HW,2013-01-18 07:19:00,
2013-01-18 00:20:00,34.4,19.8,29.92,NW,315,5.4,7.2,55,0.00,,,0.00,WUHU216HW,2013-01-18 07:20:00,
2013-01-18 00:22:00,34.4,19.8,29.92,WNW,293,11.4,11.4,55,0.00,,,0.00,WUHU216HW,2013-01-18 07:22:00,
2013-01-18 00:23:00,34.4,19.8,29.91,West,270,5.4,11.4,55,0.00,,,0.00,WUHU216HW,2013-01-18 07:23:00,
2013-01-18 00:24:00,34.4,19.8,29.91,WNW,293,8.5,11.4,55,0.00,,,0.00,WUHU216HW,2013-01-18 07:24:00,
2013-01-18 00:25:00,34.4,19.8,29.91,NW,315,7.2,11.4,55,0.00,,,0.00,WUHU216HW,2013-01-18 07:25:00,
2013-01-18 00:27:00,34.4,19.8,29.91,West,270,7.2,11.4,55,0.00,,,0.00,WUHU216HW,2013-01-18 07:27:00,
2013-01-18 00:28:00,34.4,19.8,29.91,West,270,5.6,11.4,55,0.00,,,0.00,WUHU216HW,2013-01-18 07:28:00,
2013-01-18 00:30:00,34.4,19.8,29.91,West,270,7.6,11.4,55,0.00,,,0.00,WUHU216HW,2013-01-18 07:30:00,
2013-01-18 00:33:00,34.6,20.0,29.91,WNW,293,11.0,11.0,55,0.00,,,0.00,WUHU216HW,2013-01-18 07:33:00,
2013-01-18 00:35:00,34.6,20.0,29.91,NW,315,4.0,11.0,55,0.00,,,0.00,WUHU216HW,2013-01-18 07:35:00,
2013-01-18 00:38:00,34.7,19.7,29.91,NW,315,4.5,11.0,54,0.00,,,0.00,WUHU216HW,2013-01-18 07:38:00,
2013-01-18 00:40:00,34.9,19.9,29.91,West,270,5.8,11.0,54,0.00,,,0.00,WUHU216HW,2013-01-18 07:40:00,
2013-01-18 00:43:00,34.9,19.9,29.91,WNW,293,10.3,10.5,54,0.00,,,0.00,WUHU216HW,2013-01-18 07:43:00,
2013-01-18 00:45:00,35.1,20.1,29.91,NW,315,7.8,10.5,54,0.00,,,0.00,WUHU216HW,2013-01-18 07:45:00,
2013-01-18 00:48:00,35.1,20.1,29.91,WNW,293,7.6,10.3,54,0.00,,,0.00,WUHU216HW,2013-01-18 07:48:00,
2013-01-18 00:49:00,35.1,20.1,29.91,WNW,293,10.5,10.5,54,0.00,,,0.00,WUHU216HW,2013-01-18 07:49:00,
2013-01-18 00:50:00,35.1,20.1,29.91,West,270,8.9,10.5,54,0.00,,,0.00,WUHU216HW,2013-01-18 07:50:00,
2013-01-18 00:53:00,35.3,20.3,29.91,NNW,338,7.2,10.5,54,0.00,,,0.00,WUHU216HW,2013-01-18 07:53:00,
2013-01-18 00:54:00,35.3,20.3,29.91,NNW,338,7.2,10.5,54,0.00,,,0.00,WUHU216HW,2013-01-18 07:54:00,
2013-01-18 00:55:00,35.3,20.3,29.91,WNW,293,11.6,11.6,54,0.00,,,0.00,WUHU216HW,2013-01-18 07:55:00,
2013-01-18 00:58:00,35.5,20.4,29.91,NW,315,8.9,11.6,54,0.00,,,0.00,WUHU216HW,2013-01-18 07:58:00,
2013-01-18 00:59:00,35.5,20.4,29.91,West,270,8.9,11.6,54,0.00,,,0.00,WUHU216HW,2013-01-18 07:59:00,
2013-01-18 01:00:00,35.5,20.4,29.91,WSW,248,6.5,11.6,54,0.00,,,0.00,WUHU216HW,2013-01-18 08:00:00,
2013-01-18 01:03:00,35.5,20.0,29.92,West,270,10.7,11.6,53,0.00,,,0.00,WUHU216HW,2013-01-18 08:03:00,
2013-01-18 01:04:00,35.6,20.2,29.92,NW,315,7.6,11.6,53,0.00,,,0.00,WUHU216HW,2013-01-18 08:04:00,
2013-01-18 01:05:00,35.6,20.2,29.92,WSW,248,11.9,11.9,53,0.00,,,0.00,WUHU216HW,2013-01-18 08:05:00,
2013-01-18 01:06:00,35.6,20.2,29.91,SW,225,5.4,11.9,53,0.00,,,0.00,WUHU216HW,2013-01-18 08:06:00,
2013-01-18 01:08:00,35.6,20.2,29.91,WNW,293,6.7,11.9,53,0.00,,,0.00,WUHU216HW,2013-01-18 08:08:00,
2013-01-18 01:09:00,35.6,20.2,29.91,West,270,4.9,11.9,53,0.00,,,0.00,WUHU216HW,2013-01-18 08:09:00,
2013-01-18 01:10:00,35.6,20.2,29.91,NW,315,6.3,11.9,53,0.00,,,0.00,WUHU216HW,2013-01-18 08:10:00,
2013-01-18 01:11:00,35.6,20.2,29.91,WNW,293,6.0,11.9,53,0.00,,,0.00,WUHU216HW,2013-01-18 08:11:00,
2013-01-18 01:13:00,35.5,20.0,29.91,WNW,293,5.4,11.9,53,0.00,,,0.00,WUHU216HW,2013-01-18 08:13:00,
2013-01-18 01:15:00,35.5,20.0,29.91,West,270,4.7,8.5,53,0.00,,,0.00,WUHU216HW,2013-01-18 08:15:00,
2013-01-18 01:16:00,35.5,20.0,29.91,WNW,293,7.6,8.5,53,0.00,,,0.00,WUHU216HW,2013-01-18 08:16:00,
2013-01-18 01:18:00,35.5,20.0,29.91,SW,225,5.8,10.3,53,0.00,,,0.00,WUHU216HW,2013-01-18 08:18:00,
2013-01-18 01:20:00,35.3,20.3,29.91,WNW,293,6.3,10.3,54,0.00,,,0.00,WUHU216HW,2013-01-18 08:20:00,
2013-01-18 01:21:00,35.3,20.3,29.91,WSW,248,5.6,10.3,54,0.00,,,0.00,WUHU216HW,2013-01-18 08:21:00,
2013-01-18 01:23:00,35.3,20.3,29.91,NNW,338,5.4,10.3,54,0.00,,,0.00,WUHU216HW,2013-01-18 08:23:00,
2013-01-18 01:25:00,35.1,20.1,29.91,SW,225,8.1,10.3,54,0.00,,,0.00,WUHU216HW,2013-01-18 08:25:00,
2013-01-18 01:26:00,35.1,20.1,29.91,SW,225,8.1,10.3,54,0.00,,,0.00,WUHU216HW,2013-01-18 08:26:00,
2013-01-18 01:29:00,35.1,20.1,29.91,NNW,338,8.7,11.2,54,0.00,,,0.00,WUHU216HW,2013-01-18 08:29:00,
2013-01-18 01:30:00,35.1,20.1,29.91,WNW,293,8.1,11.2,54,0.00,,,0.00,WUHU216HW,2013-01-18 08:30:00,
2013-01-18 01:31:00,35.1,20.1,29.91,SW,225,5.6,11.2,54,0.00,,,0.00,WUHU216HW,2013-01-18 08:31:00,
2013-01-18 01:34:00,35.1,20.1,29.91,WNW,293,11.6,11.6,54,0.00,,,0.00,WUHU216HW,2013-01-18 08:34:00,
2013-01-18 01:35:00,35.1,20.1,29.91,NW,315,9.2,11.6,54,0.00,,,0.00,WUHU216HW,2013-01-18 08:35:00,
2013-01-18 01:36:00,35.1,20.1,29.91,WNW,293,7.8,11.6,54,0.00,,,0.00,WUHU216HW,2013-01-18 08:36:00,
2013-01-18 01:39:00,35.1,19.6,29.91,WSW,248,12.5,12.5,53,0.00,,,0.00,WUHU216HW,2013-01-18 08:39:00,
2013-01-18 01:40:00,35.3,19.8,29.91,West,270,8.1,12.5,53,0.00,,,0.00,WUHU216HW,2013-01-18 08:40:00,
2013-01-18 01:41:00,35.1,19.6,29.91,WNW,293,7.4,12.5,53,0.00,,,0.00,WUHU216HW,2013-01-18 08:41:00,
2013-01-18 01:42:00,35.1,19.6,29.91,WNW,293,7.4,12.5,53,0.00,,,0.00,WUHU216HW,2013-01-18 08:42:00,
2013-01-18 01:44:00,35.1,19.6,29.91,West,270,3.6,12.5,53,0.00,,,0.00,WUHU216HW,2013-01-18 08:44:00,
2013-01-18 01:45:00,35.1,19.6,29.91,WSW,248,8.5,12.5,53,0.00,,,0.00,WUHU216HW,2013-01-18 08:45:00,
2013-01-18 01:46:00,35.1,19.6,29.91,West,270,3.1,12.5,53,0.00,,,0.00,WUHU216HW,2013-01-18 08:46:00,
2013-01-18 01:47:00,35.1,19.6,29.91,West,270,3.1,12.5,53,0.00,,,0.00,WUHU216HW,2013-01-18 08:47:00,
2013-01-18 01:49:00,34.9,19.9,29.91,WNW,293,6.9,8.5,54,0.00,,,0.00,WUHU216HW,2013-01-18 08:49:00,
2013-01-18 01:50:00,34.9,19.9,29.91,WSW,248,7.6,8.5,54,0.00,,,0.00,WUHU216HW,2013-01-18 08:50:00,
2013-01-18 01:51:00,34.9,19.9,29.91,West,270,6.7,8.5,54,0.00,,,0.00,WUHU216HW,2013-01-18 08:51:00,
2013-01-18 01:52:00,34.9,19.9,29.91,West,270,6.7,8.5,54,0.00,,,0.00,WUHU216HW,2013-01-18 08:52:00,
2013-01-18 01:54:00,34.9,19.9,29.91,West,270,6.5,8.5,54,0.00,,,0.00,WUHU216HW,2013-01-18 08:54:00,
2013-01-18 01:56:00,34.9,19.9,29.91,West,270,3.6,7.6,54,0.00,,,0.00,WUHU216HW,2013-01-18 08:56:00,
2013-01-18 01:57:00,34.9,19.9,29.91,WNW,293,5.6,7.6,54,0.00,,,0.00,WUHU216HW,2013-01-18 08:57:00,
2013-01-18 01:59:00,34.7,19.7,29.92,NNW,338,7.8,8.3,54,0.00,,,0.00,WUHU216HW,2013-01-18 08:59:00,
2013-01-18 02:01:00,34.7,19.7,29.92,WSW,248,6.0,13.2,54,0.00,,,0.00,WUHU216HW,2013-01-18 09:01:00,
2013-01-18 02:02:00,34.7,19.7,29.91,West,270,7.6,13.2,54,0.00,,,0.00,WUHU216HW,2013-01-18 09:02:00,
2013-01-18 02:04:00,34.7,19.7,29.92,WNW,293,6.7,13.2,54,0.00,,,0.00,WUHU216HW,2013-01-18 09:04:00,
2013-01-18 02:06:00,34.7,19.7,29.92,WNW,293,3.1,13.2,54,0.00,,,0.00,WUHU216HW,2013-01-18 09:06:00,
2013-01-18 02:07:00,34.7,19.7,29.92,WNW,293,5.1,13.2,54,0.00,,,0.00,WUHU216HW,2013-01-18 09:07:00,
2013-01-18 02:09:00,34.7,19.7,29.92,NW,315,3.4,13.2,54,0.00,,,0.00,WUHU216HW,2013-01-18 09:09:00,
2013-01-18 02:11:00,34.7,19.7,29.92,WNW,293,4.7,7.8,54,0.00,,,0.00,WUHU216HW,2013-01-18 09:11:00,
2013-01-18 02:12:00,34.7,19.7,29.92,WNW,293,2.7,7.8,54,0.00,,,0.00,WUHU216HW,2013-01-18 09:12:00,
2013-01-18 02:15:00,34.7,19.7,29.92,West,270,5.1,6.7,54,0.00,,,0.00,WUHU216HW,2013-01-18 09:15:00,
2013-01-18 02:17:00,34.7,19.7,29.92,WNW,293,8.1,8.1,54,0.00,,,0.00,WUHU216HW,2013-01-18 09:17:00,
2013-01-18 02:20:00,34.9,19.9,29.92,NW,315,4.5,8.1,54,0.00,,,0.00,WUHU216HW,2013-01-18 09:20:00,
2013-01-18 02:22:00,34.9,19.9,29.92,West,270,10.7,10.7,54,0.00,,,0.00,WUHU216HW,2013-01-18 09:22:00,
2013-01-18 02:25:00,34.9,19.9,29.91,NW,315,2.7,10.7,54,0.00,,,0.00,WUHU216HW,2013-01-18 09:25:00,
2013-01-18 02:27:00,34.9,19.9,29.91,WNW,293,2.7,10.7,54,0.00,,,0.00,WUHU216HW,2013-01-18 09:27:00,
2013-01-18 02:28:00,34.9,19.9,29.91,West,270,8.3,10.7,54,0.00,,,0.00,WUHU216HW,2013-01-18 09:28:00,
2013-01-18 02:30:00,34.9,19.9,29.91,NW,315,4.7,10.7,54,0.00,,,0.00,WUHU216HW,2013-01-18 09:30:00,
2013-01-18 02:32:00,34.9,19.9,29.91,West,270,2.9,8.3,54,0.00,,,0.00,WUHU216HW,2013-01-18 09:32:00,
2013-01-18 02:33:00,34.9,19.9,29.91,West,270,2.2,8.3,54,0.00,,,0.00,WUHU216HW,2013-01-18 09:33:00,
2013-01-18 02:35:00,34.9,19.9,29.91,WNW,293,1.6,8.3,54,0.00,,,0.00,WUHU216HW,2013-01-18 09:35:00,
2013-01-18 02:37:00,34.9,19.9,29.91,West,270,2.2,8.3,54,0.00,,,0.00,WUHU216HW,2013-01-18 09:37:00,
2013-01-18 02:38:00,34.7,19.7,29.91,SW,225,2.5,4.7,54,0.00,,,0.00,WUHU216HW,2013-01-18 09:38:00,
2013-01-18 02:40:00,34.7,19.7,29.91,WSW,248,2.2,2.9,54,0.00,,,0.00,WUHU216HW,2013-01-18 09:40:00,
2013-01-18 02:42:00,34.6,19.5,29.91,WSW,248,2.2,2.9,54,0.00,,,0.00,WUHU216HW,2013-01-18 09:42:00,
2013-01-18 02:43:00,34.6,19.5,29.91,WSW,248,2.2,2.9,54,0.00,,,0.00,WUHU216HW,2013-01-18 09:43:00,
2013-01-18 02:45:00,34.6,20.0,29.92,WSW,248,2.5,3.6,55,0.00,,,0.00,WUHU216HW,2013-01-18 09:45:00,
2013-01-18 02:47:00,34.6,20.0,29.91,WSW,248,4.0,4.0,55,0.00,,,0.00,WUHU216HW,2013-01-18 09:47:00,
2013-01-18 02:48:00,34.6,20.0,29.91,WSW,248,4.0,4.0,55,0.00,,,0.00,WUHU216HW,2013-01-18 09:48:00,
2013-01-18 02:50:00,34.6,20.0,29.91,WSW,248,1.8,4.0,55,0.00,,,0.00,WUHU216HW,2013-01-18 09:50:00,
2013-01-18 02:52:00,34.4,19.8,29.91,SSW,203,0.7,4.0,55,0.00,,,0.00,WUHU216HW,2013-01-18 09:52:00,
2013-01-18 02:53:00,34.4,19.8,29.91,SSW,203,0.7,4.0,55,0.00,,,0.00,WUHU216HW,2013-01-18 09:53:00,
2013-01-18 02:55:00,34.4,19.8,29.91,West,270,0.9,4.0,55,0.00,,,0.00,WUHU216HW,2013-01-18 09:55:00,
2013-01-18 02:57:00,34.4,19.8,29.92,West,270,1.8,3.4,55,0.00,,,0.00,WUHU216HW,2013-01-18 09:57:00,
2013-01-18 02:58:00,34.4,19.8,29.92,West,270,1.8,3.4,55,0.00,,,0.00,WUHU216HW,2013-01-18 09:58:00,
2013-01-18 03:00:00,34.2,19.6,29.91,WSW,248,2.5,3.1,55,0.00,,,0.00,WUHU216HW,2013-01-18 10:00:00,
2013-01-18 03:02:00,34.2,19.6,29.91,West,270,1.8,3.1,55,0.00,,,0.00,WUHU216HW,2013-01-18 10:02:00,
2013-01-18 03:03:00,34.2,19.6,29.91,SSW,203,2.7,3.1,55,0.00,,,0.00,WUHU216HW,2013-01-18 10:03:00,
2013-01-18 03:05:00,34.2,19.6,29.91,West,270,1.1,3.1,55,0.00,,,0.00,WUHU216HW,2013-01-18 10:05:00,
2013-01-18 03:08:00,34.0,19.4,29.91,West,270,2.2,3.6,55,0.00,,,0.00,WUHU216HW,2013-01-18 10:08:00,
2013-01-18 03:10:00,34.0,19.9,29.91,WSW,248,1.1,3.6,56,0.00,,,0.00,WUHU216HW,2013-01-18 10:10:00,
2013-01-18 03:13:00,34.0,19.4,29.91,West,270,3.1,3.6,55,0.00,,,0.00,WUHU216HW,2013-01-18 10:13:00,
2013-01-18 03:14:00,34.0,19.4,29.91,WSW,248,0.7,3.6,55,0.00,,,0.00,WUHU216HW,2013-01-18 10:14:00,
2013-01-18 03:15:00,34.0,19.9,29.91,WSW,248,0.2,3.6,56,0.00,,,0.00,WUHU216HW,2013-01-18 10:15:00,
2013-01-18 03:18:00,34.0,19.9,29.91,WSW,248,0.9,3.4,56,0.00,,,0.00,WUHU216HW,2013-01-18 10:18:00,
2013-01-18 03:19:00,34.0,19.9,29.91,West,270,2.5,3.4,56,0.00,,,0.00,WUHU216HW,2013-01-18 10:19:00,
2013-01-18 03:21:00,34.0,19.9,29.91,WNW,293,2.7,3.4,56,0.00,,,0.00,WUHU216HW,2013-01-18 10:21:00,
2013-01-18 03:23:00,34.0,19.9,29.91,WNW,293,3.4,3.4,56,0.00,,,0.00,WUHU216HW,2013-01-18 10:23:00,
2013-01-18 03:24:00,34.0,19.9,29.91,WSW,248,3.1,3.4,56,0.00,,,0.00,WUHU216HW,2013-01-18 10:24:00,
2013-01-18 03:26:00,34.0,19.9,29.91,West,270,2.0,3.4,56,0.00,,,0.00,WUHU216HW,2013-01-18 10:26:00,
2013-01-18 03:28:00,34.2,20.1,29.90,WSW,248,5.4,5.4,56,0.00,,,0.00,WUHU216HW,2013-01-18 10:28:00,
2013-01-18 03:29:00,34.2,20.1,29.90,WSW,248,4.5,5.4,56,0.00,,,0.00,WUHU216HW,2013-01-18 10:29:00,
2013-01-18 03:31:00,34.4,20.3,29.90,NW,315,4.0,5.4,56,0.00,,,0.00,WUHU216HW,2013-01-18 10:31:00,
2013-01-18 03:33:00,34.4,19.8,29.90,West,270,4.0,5.4,55,0.00,,,0.00,WUHU216HW,2013-01-18 10:33:00,
2013-01-18 03:36:00,34.4,19.8,29.90,WSW,248,2.9,5.4,55,0.00,,,0.00,WUHU216HW,2013-01-18 10:36:00,
2013-01-18 03:38:00,34.4,19.8,29.90,West,270,2.7,4.5,55,0.00,,,0.00,WUHU216HW,2013-01-18 10:38:00,
2013-01-18 03:41:00,34.4,19.8,29.90,West,270,4.9,4.9,55,0.00,,,0.00,WUHU216HW,2013-01-18 10:41:00,
2013-01-18 03:43:00,34.2,19.6,29.90,WNW,293,1.1,4.9,55,0.00,,,0.00,WUHU216HW,2013-01-18 10:43:00,
2013-01-18 03:44:00,34.2,19.6,29.90,WNW,293,1.1,4.9,55,0.00,,,0.00,WUHU216HW,2013-01-18 10:44:00,
2013-01-18 03:46:00,34.2,19.6,29.90,WNW,293,4.0,4.9,55,0.00,,,0.00,WUHU216HW,2013-01-18 10:46:00,
2013-01-18 03:48:00,34.0,19.4,29.90,West,270,2.2,4.9,55,0.00,,,0.00,WUHU216HW,2013-01-18 10:48:00,
2013-01-18 03:49:00,33.8,19.3,29.90,West,270,4.7,4.9,55,0.00,,,0.00,WUHU216HW,2013-01-18 10:49:00,
2013-01-18 03:51:00,33.8,19.3,29.90,NW,315,2.0,4.7,55,0.00,,,0.00,WUHU216HW,2013-01-18 10:51:00,
2013-01-18 03:54:00,33.8,19.3,29.90,WSW,248,6.3,6.3,55,0.00,,,0.00,WUHU216HW,2013-01-18 10:54:00,
2013-01-18 03:56:00,33.8,19.7,29.89,West,270,3.4,6.3,56,0.00,,,0.00,WUHU216HW,2013-01-18 10:56:00,
2013-01-18 03:59:00,33.8,19.7,29.90,WSW,248,3.4,6.3,56,0.00,,,0.00,WUHU216HW,2013-01-18 10:59:00,
2013-01-18 04:01:00,34.0,19.9,29.89,West,270,9.4,9.4,56,0.00,,,0.00,WUHU216HW,2013-01-18 11:01:00,
2013-01-18 04:04:00,34.2,19.6,29.89,WSW,248,3.4,9.4,55,0.00,,,0.00,WUHU216HW,2013-01-18 11:04:00,
2013-01-18 04:06:00,34.2,19.6,29.90,WNW,293,4.9,9.4,55,0.00,,,0.00,WUHU216HW,2013-01-18 11:06:00,
2013-01-18 04:09:00,34.2,19.6,29.89,WNW,293,3.8,9.4,55,0.00,,,0.00,WUHU216HW,2013-01-18 11:09:00,
2013-01-18 04:11:00,34.2,19.6,29.89,West,270,4.7,7.6,55,0.00,,,0.00,WUHU216HW,2013-01-18 11:11:00,
2013-01-18 04:14:00,34.2,19.6,29.89,WNW,293,5.6,7.6,55,0.00,,,0.00,WUHU216HW,2013-01-18 11:14:00,
2013-01-18 04:15:00,34.2,19.6,29.89,WNW,293,5.6,7.6,55,0.00,,,0.00,WUHU216HW,2013-01-18 11:15:00,
2013-01-18 04:16:00,34.4,19.8,29.89,WNW,293,2.9,7.6,55,0.00,,,0.00,WUHU216HW,2013-01-18 11:16:00,
2013-01-18 04:19:00,34.4,19.8,29.89,West,270,4.7,7.6,55,0.00,,,0.00,WUHU216HW,2013-01-18 11:19:00,
2013-01-18 04:20:00,34.4,19.8,29.89,West,270,4.7,6.5,55,0.00,,,0.00,WUHU216HW,2013-01-18 11:20:00,
2013-01-18 04:21:00,34.2,19.6,29.89,West,270,4.0,6.5,55,0.00,,,0.00,WUHU216HW,2013-01-18 11:21:00,
2013-01-18 04:22:00,34.2,19.6,29.89,West,270,4.0,6.5,55,0.00,,,0.00,WUHU216HW,2013-01-18 11:22:00,
2013-01-18 04:24:00,34.4,19.8,29.89,WSW,248,2.5,6.5,55,0.00,,,0.00,WUHU216HW,2013-01-18 11:24:00,
2013-01-18 04:25:00,34.4,19.8,29.89,WSW,248,2.5,6.5,55,0.00,,,0.00,WUHU216HW,2013-01-18 11:25:00,
2013-01-18 04:26:00,34.2,19.6,29.89,WSW,248,2.5,6.5,55,0.00,,,0.00,WUHU216HW,2013-01-18 11:26:00,
2013-01-18 04:27:00,34.2,19.6,29.89,WSW,248,2.5,6.5,55,0.00,,,0.00,WUHU216HW,2013-01-18 11:27:00,
2013-01-18 04:29:00,34.2,19.6,29.89,West,270,3.8,5.8,55,0.00,,,0.00,WUHU216HW,2013-01-18 11:29:00,
2013-01-18 04:30:00,34.2,19.6,29.89,West,270,3.8,5.1,55,0.00,,,0.00,WUHU216HW,2013-01-18 11:30:00,
2013-01-18 04:31:00,34.2,19.6,29.89,SE,135,0.2,5.1,55,0.00,,,0.00,WUHU216HW,2013-01-18 11:31:00,
2013-01-18 04:32:00,34.2,19.6,29.89,SW,225,2.0,3.8,55,0.00,,,0.00,WUHU216HW,2013-01-18 11:32:00,
2013-01-18 04:34:00,34.2,19.6,29.89,West,270,3.4,3.8,55,0.00,,,0.00,WUHU216HW,2013-01-18 11:34:00,
2013-01-18 04:35:00,34.2,19.6,29.89,West,270,2.2,3.8,55,0.00,,,0.00,WUHU216HW,2013-01-18 11:35:00,
2013-01-18 04:37:00,34.0,19.4,29.89,West,270,2.2,3.8,55,0.00,,,0.00,WUHU216HW,2013-01-18 11:37:00,
2013-01-18 04:39:00,34.0,19.4,29.90,WSW,248,2.7,3.6,55,0.00,,,0.00,WUHU216HW,2013-01-18 11:39:00,
2013-01-18 04:41:00,34.0,19.4,29.89,WSW,248,2.7,3.6,55,0.00,,,0.00,WUHU216HW,2013-01-18 11:41:00,
2013-01-18 04:42:00,34.0,19.4,29.89,NW,315,3.1,3.6,55,0.00,,,0.00,WUHU216HW,2013-01-18 11:42:00,
2013-01-18 04:44:00,34.2,19.6,29.89,North,0,3.1,3.4,55,0.00,,,0.00,WUHU216HW,2013-01-18 11:44:00,
2013-01-18 04:46:00,34.2,19.6,29.89,West,270,0.9,3.4,55,0.00,,,0.00,WUHU216HW,2013-01-18 11:46:00,
2013-01-18 04:47:00,34.2,19.6,29.89,WNW,293,1.3,3.4,55,0.00,,,0.00,WUHU216HW,2013-01-18 11:47:00,
2013-01-18 04:48:00,34.2,19.6,29.89,WNW,293,1.6,3.1,55,0.00,,,0.00,WUHU216HW,2013-01-18 11:48:00,
2013-01-18 04:50:00,34.0,19.4,29.89,NW,315,2.5,3.4,55,0.00,,,0.00,WUHU216HW,2013-01-18 11:50:00,
2013-01-18 04:51:00,34.0,19.4,29.89,West,270,1.8,3.4,55,0.00,,,0.00,WUHU216HW,2013-01-18 11:51:00,
2013-01-18 04:52:00,34.0,19.4,29.89,NW,315,1.1,3.4,55,0.00,,,0.00,WUHU216HW,2013-01-18 11:52:00,
2013-01-18 04:53:00,33.8,19.3,29.89,West,270,1.8,3.4,55,0.00,,,0.00,WUHU216HW,2013-01-18 11:53:00,
2013-01-18 04:55:00,34.0,19.4,29.89,WSW,248,1.3,3.4,55,0.00,,,0.00,WUHU216HW,2013-01-18 11:55:00,
2013-01-18 04:56:00,33.8,19.3,29.89,WNW,293,1.6,3.4,55,0.00,,,0.00,WUHU216HW,2013-01-18 11:56:00,
2013-01-18 04:57:00,33.8,19.3,29.89,West,270,4.0,4.0,55,0.00,,,0.00,WUHU216HW,2013-01-18 11:57:00,
2013-01-18 04:58:00,33.8,19.3,29.89,NNW,338,3.4,4.0,55,0.00,,,0.00,WUHU216HW,2013-01-18 11:58:00,
2013-01-18 05:00:00,33.8,19.3,29.89,North,0,2.0,4.0,55,0.00,,,0.00,WUHU216HW,2013-01-18 12:00:00,
2013-01-18 05:01:00,33.7,19.1,29.88,NNW,338,1.6,4.0,55,0.00,,,0.00,WUHU216HW,2013-01-18 12:01:00,
2013-01-18 05:02:00,33.7,19.1,29.88,West,270,3.8,4.0,55,0.00,,,0.00,WUHU216HW,2013-01-18 12:02:00,
2013-01-18 05:04:00,33.7,19.1,29.88,West,270,1.8,4.0,55,0.00,,,0.00,WUHU216HW,2013-01-18 12:04:00,
2013-01-18 05:05:00,33.7,19.1,29.88,West,270,2.7,4.0,55,0.00,,,0.00,WUHU216HW,2013-01-18 12:05:00,
2013-01-18 05:07:00,33.5,18.9,29.88,NW,315,3.6,4.0,55,0.00,,,0.00,WUHU216HW,2013-01-18 12:07:00,
2013-01-18 05:09:00,33.5,18.9,29.88,West,270,2.5,3.8,55,0.00,,,0.00,WUHU216HW,2013-01-18 12:09:00,
2013-01-18 05:10:00,33.5,18.9,29.88,WSW,248,3.6,3.8,55,0.00,,,0.00,WUHU216HW,2013-01-18 12:10:00,
2013-01-18 05:12:00,33.5,18.9,29.88,WNW,293,6.0,6.0,55,0.00,,,0.00,WUHU216HW,2013-01-18 12:12:00,
2013-01-18 05:14:00,33.5,18.9,29.88,West,270,2.0,6.0,55,0.00,,,0.00,WUHU216HW,2013-01-18 12:14:00,
2013-01-18 05:15:00,33.5,18.9,29.88,WSW,248,2.0,6.0,55,0.00,,,0.00,WUHU216HW,2013-01-18 12:15:00,
2013-01-18 05:17:00,33.5,18.9,29.88,NW,315,2.5,6.0,55,0.00,,,0.00,WUHU216HW,2013-01-18 12:17:00,
2013-01-18 05:19:00,33.5,18.9,29.88,West,270,1.3,6.0,55,0.00,,,0.00,WUHU216HW,2013-01-18 12:19:00,
2013-01-18 05:20:00,33.5,18.9,29.88,NW,315,0.9,6.0,55,0.00,,,0.00,WUHU216HW,2013-01-18 12:20:00,
2013-01-18 05:22:00,33.5,18.9,29.87,West,270,1.8,5.1,55,0.00,,,0.00,WUHU216HW,2013-01-18 12:22:00,
2013-01-18 05:24:00,33.5,18.9,29.88,West,270,3.1,4.5,55,0.00,,,0.00,WUHU216HW,2013-01-18 12:24:00,
2013-01-18 05:26:00,33.5,18.9,29.88,WNW,293,2.5,4.5,55,0.00,,,0.00,WUHU216HW,2013-01-18 12:26:00,
2013-01-18 05:27:00,33.5,18.9,29.87,NW,315,4.7,4.7,55,0.00,,,0.00,WUHU216HW,2013-01-18 12:27:00,
2013-01-18 05:28:00,33.5,18.9,29.87,NW,315,4.7,4.7,55,0.00,,,0.00,WUHU216HW,2013-01-18 12:28:00,
2013-01-18 05:29:00,33.5,18.9,29.87,WNW,293,0.0,4.7,55,0.00,,,0.00,WUHU216HW,2013-01-18 12:29:00,
2013-01-18 05:31:00,33.5,18.9,29.87,West,270,1.1,4.7,55,0.00,,,0.00,WUHU216HW,2013-01-18 12:31:00,
2013-01-18 05:32:00,33.5,18.9,29.88,West,270,1.3,4.7,55,0.00,,,0.00,WUHU216HW,2013-01-18 12:32:00,
2013-01-18 05:33:00,33.5,18.9,29.88,West,270,1.3,4.7,55,0.00,,,0.00,WUHU216HW,2013-01-18 12:33:00,
2013-01-18 05:34:00,33.3,18.8,29.87,SW,225,0.4,4.7,55,0.00,,,0.00,WUHU216HW,2013-01-18 12:34:00,
2013-01-18 05:36:00,33.3,18.8,29.88,WSW,248,1.3,4.7,55,0.00,,,0.00,WUHU216HW,2013-01-18 12:36:00,
2013-01-18 05:37:00,33.3,18.8,29.87,NE,45,1.1,2.2,55,0.00,,,0.00,WUHU216HW,2013-01-18 12:37:00,
2013-01-18 05:38:00,33.3,18.8,29.87,West,270,0.4,2.2,55,0.00,,,0.00,WUHU216HW,2013-01-18 12:38:00,
2013-01-18 05:39:00,33.3,18.8,29.87,West,270,0.9,2.2,55,0.00,,,0.00,WUHU216HW,2013-01-18 12:39:00,
2013-01-18 05:41:00,33.1,18.6,29.87,NNW,338,1.1,1.3,55,0.00,,,0.00,WUHU216HW,2013-01-18 12:41:00,
2013-01-18 05:43:00,33.1,18.6,29.87,NW,315,1.3,1.3,55,0.00,,,0.00,WUHU216HW,2013-01-18 12:43:00,
2013-01-18 05:45:00,33.3,18.8,29.87,West,270,1.1,5.4,55,0.00,,,0.00,WUHU216HW,2013-01-18 12:45:00,
2013-01-18 05:46:00,33.3,18.8,29.87,West,270,2.0,5.4,55,0.00,,,0.00,WUHU216HW,2013-01-18 12:46:00,
2013-01-18 05:48:00,33.3,18.8,29.87,WNW,293,2.0,5.4,55,0.00,,,0.00,WUHU216HW,2013-01-18 12:48:00,
2013-01-18 05:50:00,33.3,18.8,29.87,North,0,1.1,5.4,55,0.00,,,0.00,WUHU216HW,2013-01-18 12:50:00,
2013-01-18 05:51:00,33.3,18.8,29.87,NW,315,0.4,5.4,55,0.00,,,0.00,WUHU216HW,2013-01-18 12:51:00,
2013-01-18 05:53:00,33.3,18.8,29.86,WNW,293,4.0,5.4,55,0.00,,,0.00,WUHU216HW,2013-01-18 12:53:00,
2013-01-18 05:55:00,33.5,18.9,29.87,West,270,4.9,4.9,55,0.00,,,0.00,WUHU216HW,2013-01-18 12:55:00,
2013-01-18 05:56:00,33.5,18.9,29.87,West,270,3.6,4.9,55,0.00,,,0.00,WUHU216HW,2013-01-18 12:56:00,
2013-01-18 05:58:00,33.7,19.1,29.87,WSW,248,4.7,4.9,55,0.00,,,0.00,WUHU216HW,2013-01-18 12:58:00,
2013-01-18 06:01:00,33.7,19.1,29.87,West,270,3.4,4.9,55,0.00,,,0.00,WUHU216HW,2013-01-18 13:01:00,
2013-01-18 06:03:00,33.7,19.1,29.87,WSW,248,4.7,5.8,55,0.00,,,0.00,WUHU216HW,2013-01-18 13:03:00,
2013-01-18 06:04:00,33.7,19.1,29.86,WSW,248,4.7,5.8,55,0.00,,,0.00,WUHU216HW,2013-01-18 13:04:00,
2013-01-18 06:06:00,33.7,19.1,29.86,WNW,293,4.0,5.8,55,0.00,,,0.00,WUHU216HW,2013-01-18 13:06:00,
2013-01-18 06:08:00,33.7,19.1,29.86,NNW,338,3.4,5.8,55,0.00,,,0.00,WUHU216HW,2013-01-18 13:08:00,
2013-01-18 06:09:00,33.7,19.1,29.86,West,270,1.6,5.8,55,0.00,,,0.00,WUHU216HW,2013-01-18 13:09:00,
2013-01-18 06:11:00,33.7,19.1,29.86,NW,315,1.8,5.8,55,0.00,,,0.00,WUHU216HW,2013-01-18 13:11:00,
2013-01-18 06:13:00,33.7,19.1,29.87,NNW,338,1.1,4.7,55,0.00,,,0.00,WUHU216HW,2013-01-18 13:13:00,
2013-01-18 06:14:00,33.7,19.1,29.87,WNW,293,1.3,4.0,55,0.00,,,0.00,WUHU216HW,2013-01-18 13:14:00,
2013-01-18 06:16:00,33.8,19.3,29.87,SW,225,1.1,3.4,55,0.00,,,0.00,WUHU216HW,2013-01-18 13:16:00,
2013-01-18 06:17:00,33.7,19.1,29.87,NW,315,1.1,3.4,55,0.00,,,0.00,WUHU216HW,2013-01-18 13:17:00,
2013-01-18 06:18:00,33.8,19.3,29.87,NW,315,1.1,3.4,55,0.00,,,0.00,WUHU216HW,2013-01-18 13:18:00,
2013-01-18 06:19:00,33.7,18.6,29.87,NW,315,1.6,3.4,54,0.00,,,0.00,WUHU216HW,2013-01-18 13:19:00,
2013-01-18 06:21:00,33.7,18.6,29.87,WSW,248,0.4,3.4,54,0.00,,,0.00,WUHU216HW,2013-01-18 13:21:00,
2013-01-18 06:22:00,33.7,18.6,29.87,WSW,248,1.1,1.6,54,0.00,,,0.00,WUHU216HW,2013-01-18 13:22:00,
2013-01-18 06:23:00,33.7,18.6,29.87,North,0,2.0,2.0,54,0.00,,,0.00,WUHU216HW,2013-01-18 13:23:00,
2013-01-18 06:24:00,33.7,18.6,29.87,SW,225,0.9,2.0,54,0.00,,,0.00,WUHU216HW,2013-01-18 13:24:00,
2013-01-18 06:26:00,33.7,18.6,29.87,NW,315,3.8,3.8,54,0.00,,,0.00,WUHU216HW,2013-01-18 13:26:00,
2013-01-18 06:27:00,33.7,18.6,29.87,NW,315,3.8,3.8,54,0.00,,,0.00,WUHU216HW,2013-01-18 13:27:00,
2013-01-18 06:28:00,33.7,18.6,29.87,West,270,4.0,4.0,54,0.00,,,0.00,WUHU216HW,2013-01-18 13:28:00,
2013-01-18 06:29:00,33.7,18.6,29.87,West,270,3.6,4.0,54,0.00,,,0.00,WUHU216HW,2013-01-18 13:29:00,
2013-01-18 06:31:00,33.7,18.6,29.86,WSW,248,2.5,4.0,54,0.00,,,0.00,WUHU216HW,2013-01-18 13:31:00,
2013-01-18 06:32:00,33.5,18.6,29.86,West,270,2.5,4.0,54,0.00,,,0.00,WUHU216HW,2013-01-18 13:32:00,
2013-01-18 06:33:00,33.5,18.6,29.86,WSW,248,1.8,4.0,54,0.00,,,0.00,WUHU216HW,2013-01-18 13:33:00,
2013-01-18 06:34:00,33.5,18.9,29.86,WNW,293,1.8,4.0,55,0.00,,,0.00,WUHU216HW,2013-01-18 13:34:00,
2013-01-18 06:36:00,33.5,18.9,29.86,SW,225,3.4,4.0,55,0.00,,,0.00,WUHU216HW,2013-01-18 13:36:00,
2013-01-18 06:37:00,33.5,18.9,29.86,West,270,6.0,6.0,55,0.00,,,0.00,WUHU216HW,2013-01-18 13:37:00,
2013-01-18 06:38:00,33.5,18.9,29.86,West,270,4.0,6.0,55,0.00,,,0.00,WUHU216HW,2013-01-18 13:38:00,
2013-01-18 06:39:00,33.5,18.9,29.86,West,270,3.4,6.0,55,0.00,,,0.00,WUHU216HW,2013-01-18 13:39:00,
2013-01-18 06:42:00,33.5,18.9,29.86,West,270,5.4,6.0,55,0.00,,,0.00,WUHU216HW,2013-01-18 13:42:00,
2013-01-18 06:43:00,33.7,19.1,29.86,WSW,248,2.7,6.0,55,0.00,,,0.00,WUHU216HW,2013-01-18 13:43:00,
2013-01-18 06:44:00,33.7,19.1,29.86,WSW,248,2.7,6.0,55,0.00,,,0.00,WUHU216HW,2013-01-18 13:44:00,
2013-01-18 06:47:00,33.7,18.6,29.86,WSW,248,1.8,5.4,54,0.00,,,0.00,WUHU216HW,2013-01-18 13:47:00,
2013-01-18 06:49:00,33.7,18.6,29.86,WSW,248,2.0,5.4,54,0.00,,,0.00,WUHU216HW,2013-01-18 13:49:00,
2013-01-18 06:52:00,33.7,18.6,29.86,NW,315,2.5,3.1,54,0.00,,,0.00,WUHU216HW,2013-01-18 13:52:00,
2013-01-18 06:54:00,33.8,18.8,29.86,West,270,3.1,3.1,54,0.00,,,0.00,WUHU216HW,2013-01-18 13:54:00,
2013-01-18 06:58:00,33.7,18.6,29.86,West,270,1.3,3.1,54,0.00,,,0.00,WUHU216HW,2013-01-18 13:58:00,
2013-01-18 06:59:00,33.7,18.6,29.86,WSW,248,0.4,3.1,54,0.00,,,0.00,WUHU216HW,2013-01-18 13:59:00,
2013-01-18 07:00:00,33.7,18.6,29.86,SSW,203,1.1,3.1,54,0.00,,,0.00,WUHU216HW,2013-01-18 14:00:00,
2013-01-18 07:03:00,33.5,18.6,29.86,WSW,248,5.4,5.4,54,0.00,,,0.00,WUHU216HW,2013-01-18 14:03:00,
2013-01-18 07:04:00,33.5,18.6,29.86,WNW,293,6.0,6.0,54,0.00,,,0.00,WUHU216HW,2013-01-18 14:04:00,
2013-01-18 07:05:00,33.5,18.6,29.86,WSW,248,3.4,6.0,54,0.00,,,0.00,WUHU216HW,2013-01-18 14:05:00,
2013-01-18 07:08:00,33.5,18.6,29.86,SW,225,4.5,6.0,54,0.00,,,0.00,WUHU216HW,2013-01-18 14:08:00,
2013-01-18 07:09:00,33.5,18.6,29.86,WNW,293,2.7,6.0,54,0.00,,,0.00,WUHU216HW,2013-01-18 14:09:00,
2013-01-18 07:10:00,33.5,18.6,29.86,SW,225,4.0,6.0,54,0.00,,,0.00,WUHU216HW,2013-01-18 14:10:00,
2013-01-18 07:13:00,33.5,18.6,29.86,West,270,0.9,6.0,54,0.00,,,0.00,WUHU216HW,2013-01-18 14:13:00,
2013-01-18 07:14:00,33.5,18.6,29.86,West,270,0.9,4.5,54,0.00,,,0.00,WUHU216HW,2013-01-18 14:14:00,
2013-01-18 07:15:00,33.5,18.6,29.86,WNW,293,2.2,4.5,54,0.00,,,0.00,WUHU216HW,2013-01-18 14:15:00,
2013-01-18 07:18:00,33.5,18.9,29.86,SW,225,2.7,4.0,55,0.00,,,0.00,WUHU216HW,2013-01-18 14:18:00,
2013-01-18 07:19:00,33.5,18.6,29.86,WNW,293,4.7,4.7,54,0.00,,,0.00,WUHU216HW,2013-01-18 14:19:00,
2013-01-18 07:20:00,33.5,18.9,29.86,WNW,293,4.7,4.7,55,0.00,,,0.00,WUHU216HW,2013-01-18 14:20:00,
2013-01-18 07:23:00,33.5,18.6,29.86,WSW,248,2.5,4.7,54,0.00,,,0.00,WUHU216HW,2013-01-18 14:23:00,
2013-01-18 07:24:00,33.5,18.9,29.86,SW,225,3.4,4.7,55,0.00,,,0.00,WUHU216HW,2013-01-18 14:24:00,
2013-01-18 07:25:00,33.5,18.6,29.86,WSW,248,3.6,4.7,54,0.00,,,0.00,WUHU216HW,2013-01-18 14:25:00,
2013-01-18 07:26:00,33.3,18.4,29.85,West,270,1.8,4.7,54,0.00,,,0.00,WUHU216HW,2013-01-18 14:26:00,
2013-01-18 07:28:00,33.3,18.4,29.86,WSW,248,4.7,4.7,54,0.00,,,0.00,WUHU216HW,2013-01-18 14:28:00,
2013-01-18 07:29:00,33.1,18.2,29.86,NW,315,1.8,4.7,54,0.00,,,0.00,WUHU216HW,2013-01-18 14:29:00,
2013-01-18 07:30:00,33.1,18.2,29.86,West,270,3.6,4.7,54,0.00,,,0.00,WUHU216HW,2013-01-18 14:30:00,
2013-01-18 07:31:00,33.1,18.2,29.86,WSW,248,0.4,4.7,54,0.00,,,0.00,WUHU216HW,2013-01-18 14:31:00,
2013-01-18 07:33:00,33.1,18.6,29.86,West,270,0.0,4.7,55,0.00,,,0.00,WUHU216HW,2013-01-18 14:33:00,
2013-01-18 07:34:00,33.1,18.6,29.86,SSW,203,0.7,4.7,55,0.00,,,0.00,WUHU216HW,2013-01-18 14:34:00,
2013-01-18 07:35:00,32.9,18.5,29.86,NNE,23,0.7,4.7,55,0.00,,,0.00,WUHU216HW,2013-01-18 14:35:00,
2013-01-18 07:36:00,32.9,18.5,29.86,SW,225,1.1,4.7,55,0.00,,,0.00,WUHU216HW,2013-01-18 14:36:00,
2013-01-18 07:39:00,32.8,18.3,29.86,West,270,2.9,3.6,55,0.00,,,0.00,WUHU216HW,2013-01-18 14:39:00,
2013-01-18 07:40:00,32.8,18.3,29.86,WSW,248,3.4,3.4,55,0.00,,,0.00,WUHU216HW,2013-01-18 14:40:00,
2013-01-18 07:42:00,32.8,18.3,29.86,WSW,248,1.1,3.4,55,0.00,,,0.00,WUHU216HW,2013-01-18 14:42:00,
2013-01-18 07:44:00,32.8,18.3,29.86,West,270,4.0,4.0,55,0.00,,,0.00,WUHU216HW,2013-01-18 14:44:00,
2013-01-18 07:45:00,32.8,18.3,29.86,WSW,248,4.5,4.5,55,0.00,,,0.00,WUHU216HW,2013-01-18 14:45:00,
2013-01-18 07:46:00,32.8,18.3,29.86,North,0,4.0,4.5,55,0.00,,,0.00,WUHU216HW,2013-01-18 14:46:00,
2013-01-18 07:47:00,32.8,18.3,29.86,West,270,3.8,8.9,55,0.00,,,0.00,WUHU216HW,2013-01-18 14:47:00,
2013-01-18 07:49:00,32.8,18.3,29.86,WNW,293,5.6,8.9,55,0.00,,,0.00,WUHU216HW,2013-01-18 14:49:00,
2013-01-18 07:50:00,32.8,18.3,29.86,SW,225,3.8,8.9,55,0.00,,,0.00,WUHU216HW,2013-01-18 14:50:00,
2013-01-18 07:51:00,32.8,18.3,29.86,SW,225,3.8,8.9,55,0.00,,,0.00,WUHU216HW,2013-01-18 14:51:00,
2013-01-18 07:52:00,32.8,18.3,29.86,WNW,293,6.9,8.9,55,0.00,,,0.00,WUHU216HW,2013-01-18 14:52:00,
2013-01-18 07:54:00,32.9,18.5,29.86,West,270,3.4,8.9,55,0.00,,,0.00,WUHU216HW,2013-01-18 14:54:00,
2013-01-18 07:55:00,32.9,18.5,29.86,West,270,2.5,8.9,55,0.00,,,0.00,WUHU216HW,2013-01-18 14:55:00,
2013-01-18 07:56:00,32.9,18.5,29.86,WNW,293,3.6,7.2,55,0.00,,,0.00,WUHU216HW,2013-01-18 14:56:00,
2013-01-18 07:57:00,32.9,18.5,29.86,WNW,293,2.2,7.2,55,0.00,,,0.00,WUHU216HW,2013-01-18 14:57:00,
2013-01-18 07:59:00,32.9,18.5,29.86,West,270,7.6,7.6,55,0.00,,,0.00,WUHU216HW,2013-01-18 14:59:00,
2013-01-18 08:00:00,32.9,18.5,29.86,West,270,4.7,7.6,55,0.00,,,0.00,WUHU216HW,2013-01-18 15:00:00,
2013-01-18 08:01:00,33.1,18.6,29.86,WNW,293,3.8,7.6,55,0.00,,,0.00,WUHU216HW,2013-01-18 15:01:00,
2013-01-18 08:02:00,32.9,18.5,29.86,NW,315,3.4,7.6,55,0.00,,,0.00,WUHU216HW,2013-01-18 15:02:00,
2013-01-18 08:04:00,33.1,18.6,29.86,West,270,3.8,7.6,55,0.00,,,0.00,WUHU216HW,2013-01-18 15:04:00,
2013-01-18 08:05:00,33.1,18.6,29.86,SW,225,4.7,7.6,55,0.00,,,0.00,WUHU216HW,2013-01-18 15:05:00,
2013-01-18 08:06:00,33.1,18.6,29.87,West,270,6.3,7.6,55,0.00,,,0.00,WUHU216HW,2013-01-18 15:06:00,
2013-01-18 08:07:00,33.1,18.6,29.86,West,270,3.6,7.6,55,0.00,,,0.00,WUHU216HW,2013-01-18 15:07:00,
2013-01-18 08:09:00,33.1,18.6,29.86,West,270,5.4,6.3,55,0.00,,,0.00,WUHU216HW,2013-01-18 15:09:00,
2013-01-18 08:10:00,33.1,18.6,29.86,West,270,3.4,6.3,55,0.00,,,0.00,WUHU216HW,2013-01-18 15:10:00,
2013-01-18 08:11:00,33.3,18.8,29.87,WNW,293,5.8,6.3,55,0.00,,,0.00,WUHU216HW,2013-01-18 15:11:00,
2013-01-18 08:12:00,33.1,18.6,29.87,West,270,5.4,6.3,55,0.00,,,0.00,WUHU216HW,2013-01-18 15:12:00,
2013-01-18 08:14:00,33.3,18.8,29.86,SW,225,7.8,7.8,55,0.00,,,0.00,WUHU216HW,2013-01-18 15:14:00,
2013-01-18 08:15:00,33.3,18.8,29.86,West,270,5.8,7.8,55,0.00,,,0.00,WUHU216HW,2013-01-18 15:15:00,
2013-01-18 08:16:00,33.3,18.8,29.87,West,270,4.3,7.8,55,0.00,,,0.00,WUHU216HW,2013-01-18 15:16:00,
2013-01-18 08:18:00,33.5,18.9,29.86,West,270,5.4,7.8,55,0.00,,,0.00,WUHU216HW,2013-01-18 15:18:00,
2013-01-18 08:19:00,33.5,18.9,29.86,WNW,293,4.9,7.8,55,0.00,,,0.00,WUHU216HW,2013-01-18 15:19:00,
2013-01-18 08:20:00,33.5,18.9,29.87,West,270,3.4,7.8,55,0.00,,,0.00,WUHU216HW,2013-01-18 15:20:00,
2013-01-18 08:21:00,33.5,18.9,29.87,WNW,293,4.3,7.8,55,0.00,,,0.00,WUHU216HW,2013-01-18 15:21:00,
2013-01-18 08:23:00,33.5,18.9,29.86,SSW,203,7.4,7.8,55,0.00,,,0.00,WUHU216HW,2013-01-18 15:23:00,
2013-01-18 08:24:00,33.5,18.9,29.86,NW,315,3.1,7.4,55,0.00,,,0.00,WUHU216HW,2013-01-18 15:24:00,
2013-01-18 08:26:00,33.5,18.9,29.86,NW,315,3.1,7.4,55,0.00,,,0.00,WUHU216HW,2013-01-18 15:26:00,
2013-01-18 08:28:00,33.5,18.9,29.87,WSW,248,4.7,7.4,55,0.00,,,0.00,WUHU216HW,2013-01-18 15:28:00,
2013-01-18 08:29:00,33.5,18.9,29.87,West,270,2.7,7.4,55,0.00,,,0.00,WUHU216HW,2013-01-18 15:29:00,
2013-01-18 08:31:00,33.5,18.9,29.87,WSW,248,3.4,7.4,55,0.00,,,0.00,WUHU216HW,2013-01-18 15:31:00,
2013-01-18 08:32:00,33.5,18.9,29.87,WSW,248,3.4,7.4,55,0.00,,,0.00,WUHU216HW,2013-01-18 15:32:00,
2013-01-18 08:33:00,33.7,19.1,29.87,West,270,3.6,4.7,55,0.00,,,0.00,WUHU216HW,2013-01-18 15:33:00,
2013-01-18 08:34:00,33.7,19.1,29.87,WNW,293,2.9,4.7,55,0.00,,,0.00,WUHU216HW,2013-01-18 15:34:00,
2013-01-18 08:36:00,33.7,19.1,29.87,West,270,1.6,4.7,55,0.00,,,0.00,WUHU216HW,2013-01-18 15:36:00,
2013-01-18 08:37:00,33.7,19.1,29.87,West,270,1.6,4.7,55,0.00,,,0.00,WUHU216HW,2013-01-18 15:37:00,
2013-01-18 08:38:00,33.7,19.1,29.87,WSW,248,5.1,5.1,55,0.00,,,0.00,WUHU216HW,2013-01-18 15:38:00,
2013-01-18 08:39:00,33.7,19.1,29.87,NW,315,4.7,5.1,55,0.00,,,0.00,WUHU216HW,2013-01-18 15:39:00,
2013-01-18 08:41:00,33.7,19.1,29.87,WSW,248,3.8,5.1,55,0.00,,,0.00,WUHU216HW,2013-01-18 15:41:00,
2013-01-18 08:42:00,33.7,19.1,29.87,WSW,248,3.8,5.1,55,0.00,,,0.00,WUHU216HW,2013-01-18 15:42:00,
2013-01-18 08:43:00,33.7,19.1,29.87,WSW,248,4.0,5.1,55,0.00,,,0.00,WUHU216HW,2013-01-18 15:43:00,
2013-01-18 08:45:00,33.7,19.1,29.87,NNW,338,3.8,5.1,55,0.00,,,0.00,WUHU216HW,2013-01-18 15:45:00,
2013-01-18 08:46:00,33.7,19.1,29.87,WSW,248,4.7,5.4,55,0.00,,,0.00,WUHU216HW,2013-01-18 15:46:00,
2013-01-18 08:47:00,33.7,19.1,29.87,WSW,248,1.8,5.4,55,0.00,,,0.00,WUHU216HW,2013-01-18 15:47:00,
2013-01-18 08:48:00,33.7,19.1,29.87,WSW,248,1.1,5.4,55,0.00,,,0.00,WUHU216HW,2013-01-18 15:48:00,
2013-01-18 08:50:00,33.7,19.1,29.87,West,270,2.9,5.4,55,0.00,,,0.00,WUHU216HW,2013-01-18 15:50:00,
2013-01-18 08:51:00,33.8,19.3,29.88,WSW,248,2.2,5.4,55,0.00,,,0.00,WUHU216HW,2013-01-18 15:51:00,
2013-01-18 08:52:00,33.8,19.3,29.87,SSW,203,3.6,5.4,55,0.00,,,0.00,WUHU216HW,2013-01-18 15:52:00,
2013-01-18 08:54:00,33.8,19.3,29.87,North,0,3.4,5.4,55,0.00,,,0.00,WUHU216HW,2013-01-18 15:54:00,
2013-01-18 08:55:00,33.8,19.3,29.87,WSW,248,0.7,4.7,55,0.00,,,0.00,WUHU216HW,2013-01-18 15:55:00,
2013-01-18 08:56:00,33.8,18.8,29.87,WSW,248,3.6,3.6,54,0.00,,,0.00,WUHU216HW,2013-01-18 15:56:00,
2013-01-18 08:57:00,33.8,18.8,29.87,NW,315,2.2,3.6,54,0.00,,,0.00,WUHU216HW,2013-01-18 15:57:00,
2013-01-18 08:59:00,34.0,19.4,29.88,WSW,248,1.1,3.6,55,0.00,,,0.00,WUHU216HW,2013-01-18 15:59:00,
2013-01-18 09:00:00,34.0,19.0,29.88,WSW,248,1.3,3.6,54,0.00,,,0.00,WUHU216HW,2013-01-18 16:00:00,
2013-01-18 09:02:00,34.2,19.2,29.87,WNW,293,2.7,3.8,54,0.00,,,0.00,WUHU216HW,2013-01-18 16:02:00,
2013-01-18 09:04:00,34.2,19.2,29.88,WSW,248,1.8,3.8,54,0.00,,,0.00,WUHU216HW,2013-01-18 16:04:00,
2013-01-18 09:06:00,34.2,19.2,29.87,SW,225,2.7,4.5,54,0.00,,,0.00,WUHU216HW,2013-01-18 16:06:00,
2013-01-18 09:07:00,34.2,19.2,29.87,SW,225,1.3,4.5,54,0.00,,,0.00,WUHU216HW,2013-01-18 16:07:00,
2013-01-18 09:09:00,34.4,19.4,29.88,SW,225,3.4,4.5,54,0.00,,,0.00,WUHU216HW,2013-01-18 16:09:00,
2013-01-18 09:11:00,34.4,19.4,29.88,SW,225,3.6,4.5,54,0.00,,,0.00,WUHU216HW,2013-01-18 16:11:00,
2013-01-18 09:13:00,34.4,19.4,29.88,SW,225,2.7,4.5,54,0.00,,,0.00,WUHU216HW,2013-01-18 16:13:00,
2013-01-18 09:14:00,34.4,19.4,29.88,NW,315,2.5,4.5,54,0.00,,,0.00,WUHU216HW,2013-01-18 16:14:00,
2013-01-18 09:16:00,34.4,19.4,29.88,SW,225,1.3,3.6,54,0.00,,,0.00,WUHU216HW,2013-01-18 16:16:00,
2013-01-18 09:18:00,34.6,19.5,29.88,West,270,1.1,3.6,54,0.00,,,0.00,WUHU216HW,2013-01-18 16:18:00,
2013-01-18 09:19:00,34.6,19.5,29.88,West,270,3.4,3.6,54,0.00,,,0.00,WUHU216HW,2013-01-18 16:19:00,
2013-01-18 09:22:00,34.6,19.5,29.88,West,270,4.5,4.5,54,0.00,,,0.00,WUHU216HW,2013-01-18 16:22:00,
2013-01-18 09:23:00,34.7,19.7,29.88,West,270,3.1,4.5,54,0.00,,,0.00,WUHU216HW,2013-01-18 16:23:00,
2013-01-18 09:24:00,34.7,19.7,29.88,West,270,1.8,4.5,54,0.00,,,0.00,WUHU216HW,2013-01-18 16:24:00,
2013-01-18 09:27:00,34.7,19.7,29.88,West,270,1.8,4.5,54,0.00,,,0.00,WUHU216HW,2013-01-18 16:27:00,
2013-01-18 09:28:00,34.6,19.5,29.88,WSW,248,4.3,4.5,54,0.00,,,0.00,WUHU216HW,2013-01-18 16:28:00,
2013-01-18 09:29:00,34.7,19.7,29.88,WSW,248,4.5,4.5,54,0.00,,,0.00,WUHU216HW,2013-01-18 16:29:00,
2013-01-18 09:32:00,34.9,19.9,29.88,WNW,293,1.8,4.5,54,0.00,,,0.00,WUHU216HW,2013-01-18 16:32:00,
2013-01-18 09:33:00,34.9,19.9,29.88,WSW,248,2.5,4.5,54,0.00,,,0.00,WUHU216HW,2013-01-18 16:33:00,
2013-01-18 09:34:00,34.9,19.9,29.88,WSW,248,4.9,4.9,54,0.00,,,0.00,WUHU216HW,2013-01-18 16:34:00,
2013-01-18 09:37:00,34.9,19.9,29.88,West,270,1.8,6.5,54,0.00,,,0.00,WUHU216HW,2013-01-18 16:37:00,
2013-01-18 09:38:00,35.1,20.1,29.88,West,270,1.1,6.5,54,0.00,,,0.00,WUHU216HW,2013-01-18 16:38:00,
2013-01-18 09:39:00,35.1,20.1,29.88,West,270,3.8,6.5,54,0.00,,,0.00,WUHU216HW,2013-01-18 16:39:00,
2013-01-18 09:42:00,35.3,20.3,29.88,West,270,1.8,6.5,54,0.00,,,0.00,WUHU216HW,2013-01-18 16:42:00,
2013-01-18 09:43:00,35.3,20.3,29.88,WNW,293,3.1,6.5,54,0.00,,,0.00,WUHU216HW,2013-01-18 16:43:00,
2013-01-18 09:44:00,35.5,20.4,29.88,West,270,3.4,6.5,54,0.00,,,0.00,WUHU216HW,2013-01-18 16:44:00,
2013-01-18 09:47:00,35.6,20.6,29.88,WSW,248,4.7,4.7,54,0.00,,,0.00,WUHU216HW,2013-01-18 16:47:00,
2013-01-18 09:48:00,35.6,20.6,29.88,SW,225,3.4,4.7,54,0.00,,,0.00,WUHU216HW,2013-01-18 16:48:00,
2013-01-18 09:49:00,35.8,20.8,29.88,WSW,248,4.0,4.7,54,0.00,,,0.00,WUHU216HW,2013-01-18 16:49:00,
2013-01-18 09:53:00,36.0,21.0,29.87,West,270,2.7,6.0,54,0.00,,,0.00,WUHU216HW,2013-01-18 16:53:00,
2013-01-18 09:54:00,36.2,20.7,29.87,NW,315,4.7,6.0,53,0.00,,,0.00,WUHU216HW,2013-01-18 16:54:00,
2013-01-18 09:58:00,36.7,21.2,29.87,West,270,5.8,6.0,53,0.00,,,0.00,WUHU216HW,2013-01-18 16:58:00,
2013-01-18 09:59:00,36.9,20.9,29.88,West,270,2.2,6.0,52,0.00,,,0.00,WUHU216HW,2013-01-18 16:59:00,
2013-01-18 10:03:00,37.1,21.1,29.88,WSW,248,4.0,5.8,52,0.00,,,0.00,WUHU216HW,2013-01-18 17:03:00,
2013-01-18 10:04:00,37.3,21.3,29.88,NW,315,2.5,5.8,52,0.00,,,0.00,WUHU216HW,2013-01-18 17:04:00,
2013-01-18 10:08:00,37.4,21.0,29.88,SW,225,2.7,6.3,51,0.00,,,0.00,WUHU216HW,2013-01-18 17:08:00,
2013-01-18 10:09:00,37.6,21.2,29.87,NW,315,2.5,6.3,51,0.00,,,0.00,WUHU216HW,2013-01-18 17:09:00,
2013-01-18 10:10:00,37.6,21.2,29.87,West,270,3.8,6.3,51,0.00,,,0.00,WUHU216HW,2013-01-18 17:10:00,
2013-01-18 10:13:00,38.0,21.0,29.87,WNW,293,4.0,6.3,50,0.00,,,0.00,WUHU216HW,2013-01-18 17:13:00,
2013-01-18 10:14:00,38.0,21.0,29.87,WNW,293,4.0,6.3,50,0.00,,,0.00,WUHU216HW,2013-01-18 17:14:00,
2013-01-18 10:15:00,38.0,21.0,29.87,WNW,293,2.9,6.3,50,0.00,,,0.00,WUHU216HW,2013-01-18 17:15:00,
2013-01-18 10:18:00,38.2,21.6,29.87,West,270,3.1,4.0,51,0.00,,,0.00,WUHU216HW,2013-01-18 17:18:00,
2013-01-18 10:19:00,38.3,21.8,29.87,WSW,248,2.7,4.0,51,0.00,,,0.00,WUHU216HW,2013-01-18 17:19:00,
2013-01-18 10:20:00,38.3,21.8,29.87,WNW,293,2.7,4.0,51,0.00,,,0.00,WUHU216HW,2013-01-18 17:20:00,
2013-01-18 10:23:00,38.5,22.0,29.87,WSW,248,3.1,4.0,51,0.00,,,0.00,WUHU216HW,2013-01-18 17:23:00,
2013-01-18 10:24:00,38.5,21.5,29.87,West,270,3.1,4.0,50,0.00,,,0.00,WUHU216HW,2013-01-18 17:24:00,
2013-01-18 10:25:00,38.5,21.5,29.87,West,270,2.9,4.0,50,0.00,,,0.00,WUHU216HW,2013-01-18 17:25:00,
2013-01-18 10:28:00,38.9,21.8,29.86,WSW,248,3.4,4.5,50,0.00,,,0.00,WUHU216HW,2013-01-18 17:28:00,
2013-01-18 10:29:00,38.9,21.8,29.86,WSW,248,3.8,4.5,50,0.00,,,0.00,WUHU216HW,2013-01-18 17:29:00,
2013-01-18 10:30:00,38.9,21.8,29.86,WNW,293,3.4,4.5,50,0.00,,,0.00,WUHU216HW,2013-01-18 17:30:00,
2013-01-18 10:34:00,39.1,22.0,29.86,WSW,248,4.7,5.4,50,0.00,,,0.00,WUHU216HW,2013-01-18 17:34:00,
2013-01-18 10:35:00,39.1,22.0,29.86,WNW,293,3.1,5.4,50,0.00,,,0.00,WUHU216HW,2013-01-18 17:35:00,
2013-01-18 10:39:00,39.2,22.1,29.86,WNW,293,2.9,5.4,50,0.00,,,0.00,WUHU216HW,2013-01-18 17:39:00,
2013-01-18 10:40:00,39.2,22.1,29.86,WNW,293,2.9,5.4,50,0.00,,,0.00,WUHU216HW,2013-01-18 17:40:00,
2013-01-18 10:44:00,39.2,22.1,29.86,WSW,248,3.4,6.0,50,0.00,,,0.00,WUHU216HW,2013-01-18 17:44:00,
2013-01-18 10:45:00,39.2,22.1,29.86,WSW,248,3.4,6.0,50,0.00,,,0.00,WUHU216HW,2013-01-18 17:45:00,
2013-01-18 10:49:00,39.4,22.3,29.86,West,270,2.9,6.0,50,0.00,,,0.00,WUHU216HW,2013-01-18 17:49:00,
2013-01-18 10:50:00,39.2,22.1,29.86,West,270,3.1,6.0,50,0.00,,,0.00,WUHU216HW,2013-01-18 17:50:00,
2013-01-18 10:55:00,39.6,22.5,29.86,WSW,248,2.5,6.0,50,0.00,,,0.00,WUHU216HW,2013-01-18 17:55:00,
2013-01-18 11:00:00,40.0,22.8,29.85,WNW,293,4.7,6.3,50,0.00,,,0.00,WUHU216HW,2013-01-18 18:00:00,
2013-01-18 11:05:00,40.7,23.0,29.85,West,270,2.5,6.3,49,0.00,,,0.00,WUHU216HW,2013-01-18 18:05:00,
2013-01-18 11:10:00,41.2,22.9,29.85,West,270,2.7,4.7,48,0.00,,,0.00,WUHU216HW,2013-01-18 18:10:00,
2013-01-18 11:11:00,41.2,22.9,29.85,West,270,2.7,4.3,48,0.00,,,0.00,WUHU216HW,2013-01-18 18:11:00,
2013-01-18 11:15:00,41.4,23.6,29.85,WSW,248,3.8,3.8,49,0.00,,,0.00,WUHU216HW,2013-01-18 18:15:00,
2013-01-18 11:16:00,41.4,23.6,29.85,WNW,293,2.9,3.8,49,0.00,,,0.00,WUHU216HW,2013-01-18 18:16:00,
2013-01-18 11:20:00,41.6,23.2,29.85,NW,315,3.4,4.9,48,0.00,,,0.00,WUHU216HW,2013-01-18 18:20:00,
2013-01-18 11:21:00,41.6,23.2,29.85,West,270,2.0,4.9,48,0.00,,,0.00,WUHU216HW,2013-01-18 18:21:00,
2013-01-18 11:25:00,41.8,23.4,29.84,WSW,248,2.0,4.9,48,0.00,,,0.00,WUHU216HW,2013-01-18 18:25:00,
2013-01-18 11:26:00,41.8,23.4,29.84,WSW,248,1.3,4.9,48,0.00,,,0.00,WUHU216HW,2013-01-18 18:26:00,
2013-01-18 11:31:00,41.8,23.9,29.83,WSW,248,2.5,2.9,49,0.00,,,0.00,WUHU216HW,2013-01-18 18:31:00,
2013-01-18 11:36:00,42.1,23.8,29.83,WSW,248,3.4,3.6,48,0.00,,,0.00,WUHU216HW,2013-01-18 18:36:00,
2013-01-18 11:37:00,42.1,23.8,29.83,NW,315,0.7,3.6,48,0.00,,,0.00,WUHU216HW,2013-01-18 18:37:00,
2013-01-18 11:41:00,42.5,24.1,29.83,WSW,248,2.5,4.7,48,0.00,,,0.00,WUHU216HW,2013-01-18 18:41:00,
2013-01-18 11:42:00,42.7,24.3,29.83,WSW,248,2.7,4.7,48,0.00,,,0.00,WUHU216HW,2013-01-18 18:42:00,
2013-01-18 11:46:00,43.0,24.7,29.83,SW,225,3.1,4.7,48,0.00,,,0.00,WUHU216HW,2013-01-18 18:46:00,
2013-01-18 11:47:00,43.0,24.7,29.83,WSW,248,1.6,4.7,48,0.00,,,0.00,WUHU216HW,2013-01-18 18:47:00,
2013-01-18 11:51:00,43.4,24.9,29.83,SW,225,3.4,3.8,48,0.00,,,0.00,WUHU216HW,2013-01-18 18:51:00,
2013-01-18 11:52:00,43.4,24.9,29.83,SW,225,3.4,3.8,48,0.00,,,0.00,WUHU216HW,2013-01-18 18:52:00,
2013-01-18 11:56:00,43.6,25.1,29.82,WSW,248,1.8,4.3,48,0.00,,,0.00,WUHU216HW,2013-01-18 18:56:00,
2013-01-18 11:57:00,43.6,25.1,29.82,WSW,248,1.8,4.3,48,0.00,,,0.00,WUHU216HW,2013-01-18 18:57:00,
2013-01-18 12:01:00,43.6,25.1,29.82,West,270,0.9,4.3,48,0.00,,,0.00,WUHU216HW,2013-01-18 19:01:00,
2013-01-18 12:02:00,43.6,25.1,29.82,WSW,248,2.0,4.3,48,0.00,,,0.00,WUHU216HW,2013-01-18 19:02:00,
2013-01-18 12:07:00,43.6,25.1,29.81,West,270,0.7,3.1,48,0.00,,,0.00,WUHU216HW,2013-01-18 19:07:00,
2013-01-18 12:12:00,43.7,25.3,29.81,WSW,248,2.0,3.4,48,0.00,,,0.00,WUHU216HW,2013-01-18 19:12:00,
2013-01-18 12:17:00,43.9,26.0,29.81,WSW,248,2.5,3.4,49,0.00,,,0.00,WUHU216HW,2013-01-18 19:17:00,
2013-01-18 12:22:00,44.1,25.7,29.81,WSW,248,1.1,2.5,48,0.00,,,0.00,WUHU216HW,2013-01-18 19:22:00,
2013-01-18 12:23:00,44.1,25.7,29.81,WSW,248,1.1,2.5,48,0.00,,,0.00,WUHU216HW,2013-01-18 19:23:00,
2013-01-18 12:27:00,43.9,25.5,29.80,WSW,248,2.2,2.9,48,0.00,,,0.00,WUHU216HW,2013-01-18 19:27:00,
2013-01-18 12:28:00,43.9,25.5,29.80,WSW,248,2.2,2.9,48,0.00,,,0.00,WUHU216HW,2013-01-18 19:28:00,
2013-01-18 12:32:00,43.9,25.5,29.80,WNW,293,2.7,3.6,48,0.00,,,0.00,WUHU216HW,2013-01-18 19:32:00,
2013-01-18 12:33:00,43.9,25.5,29.80,WNW,293,2.7,3.6,48,0.00,,,0.00,WUHU216HW,2013-01-18 19:33:00,
2013-01-18 12:38:00,44.1,25.7,29.80,WNW,293,4.0,4.0,48,0.00,,,0.00,WUHU216HW,2013-01-18 19:38:00,
2013-01-18 12:43:00,44.8,25.8,29.80,WNW,293,3.8,6.3,47,0.00,,,0.00,WUHU216HW,2013-01-18 19:43:00,
2013-01-18 12:48:00,45.4,25.7,29.80,West,270,2.0,6.3,46,0.00,,,0.00,WUHU216HW,2013-01-18 19:48:00,
2013-01-18 12:53:00,46.1,26.3,29.80,West,270,2.7,4.0,46,0.00,,,0.00,WUHU216HW,2013-01-18 19:53:00,
2013-01-18 12:54:00,46.4,26.1,29.80,North,0,2.7,4.0,45,0.00,,,0.00,WUHU216HW,2013-01-18 19:54:00,
2013-01-18 12:58:00,47.2,26.2,29.80,WSW,248,3.8,4.7,44,0.00,,,0.00,WUHU216HW,2013-01-18 19:58:00,
2013-01-18 12:59:00,47.2,26.2,29.80,WSW,248,3.8,4.7,44,0.00,,,0.00,WUHU216HW,2013-01-18 19:59:00,
2013-01-18 13:03:00,47.9,26.3,29.79,NW,315,3.4,4.7,43,0.00,,,0.00,WUHU216HW,2013-01-18 20:03:00,
2013-01-18 13:04:00,47.9,26.3,29.79,West,270,2.5,4.7,43,0.00,,,0.00,WUHU216HW,2013-01-18 20:04:00,
2013-01-18 13:08:00,48.2,26.6,29.79,West,270,4.3,4.3,43,0.00,,,0.00,WUHU216HW,2013-01-18 20:08:00,
2013-01-18 13:09:00,48.4,26.3,29.79,West,270,6.0,6.0,42,0.00,,,0.00,WUHU216HW,2013-01-18 20:09:00,
2013-01-18 13:13:00,48.6,26.5,29.78,WNW,293,3.4,6.0,42,0.00,,,0.00,WUHU216HW,2013-01-18 20:13:00,
2013-01-18 13:14:00,48.8,25.5,29.79,West,270,6.5,6.5,40,0.00,,,0.00,WUHU216HW,2013-01-18 20:14:00,
2013-01-18 13:18:00,48.8,25.5,29.78,WNW,293,6.0,6.5,40,0.00,,,0.00,WUHU216HW,2013-01-18 20:18:00,
2013-01-18 13:19:00,48.8,25.5,29.78,West,270,6.0,6.5,40,0.00,,,0.00,WUHU216HW,2013-01-18 20:19:00,
2013-01-18 13:20:00,48.6,24.7,29.78,WSW,248,9.8,9.8,39,0.00,,,0.00,WUHU216HW,2013-01-18 20:20:00,
2013-01-18 13:23:00,48.8,24.9,29.78,WNW,293,6.0,9.8,39,0.00,,,0.00,WUHU216HW,2013-01-18 20:23:00,
2013-01-18 13:24:00,48.8,24.9,29.78,WNW,293,4.0,9.8,39,0.00,,,0.00,WUHU216HW,2013-01-18 20:24:00,
2013-01-18 13:25:00,48.8,24.9,29.78,West,270,3.4,9.8,39,0.00,,,0.00,WUHU216HW,2013-01-18 20:25:00,
2013-01-18 13:28:00,49.0,24.3,29.78,WSW,248,3.6,9.8,38,0.00,,,0.00,WUHU216HW,2013-01-18 20:28:00,
2013-01-18 13:29:00,49.1,25.1,29.78,WSW,248,4.7,9.8,39,0.00,,,0.00,WUHU216HW,2013-01-18 20:29:00,
2013-01-18 13:30:00,49.1,24.5,29.78,WSW,248,4.7,6.3,38,0.00,,,0.00,WUHU216HW,2013-01-18 20:30:00,
2013-01-18 13:34:00,49.3,25.3,29.78,West,270,7.6,7.6,39,0.00,,,0.00,WUHU216HW,2013-01-18 20:34:00,
2013-01-18 13:35:00,49.3,25.3,29.78,West,270,5.4,7.6,39,0.00,,,0.00,WUHU216HW,2013-01-18 20:35:00,
2013-01-18 13:39:00,49.3,24.7,29.78,SW,225,6.0,7.6,38,0.00,,,0.00,WUHU216HW,2013-01-18 20:39:00,
2013-01-18 13:40:00,49.3,24.7,29.78,West,270,6.3,7.6,38,0.00,,,0.00,WUHU216HW,2013-01-18 20:40:00,
2013-01-18 13:44:00,49.5,24.9,29.78,WNW,293,2.9,7.6,38,0.00,,,0.00,WUHU216HW,2013-01-18 20:44:00,
2013-01-18 13:45:00,49.5,24.9,29.78,WNW,293,2.9,7.6,38,0.00,,,0.00,WUHU216HW,2013-01-18 20:45:00,
2013-01-18 13:46:00,49.5,24.9,29.78,WNW,293,4.7,7.6,38,0.00,,,0.00,WUHU216HW,2013-01-18 20:46:00,
2013-01-18 13:50:00,50.0,25.3,29.78,NNW,338,4.0,7.6,38,0.00,,,0.00,WUHU216HW,2013-01-18 20:50:00,
2013-01-18 13:51:00,50.0,25.3,29.78,West,270,8.7,8.7,38,0.00,,,0.00,WUHU216HW,2013-01-18 20:51:00,
2013-01-18 13:55:00,50.8,25.2,29.78,West,270,5.8,8.7,37,0.00,,,0.00,WUHU216HW,2013-01-18 20:55:00,
2013-01-18 13:56:00,50.9,25.4,29.78,NW,315,2.7,8.7,37,0.00,,,0.00,WUHU216HW,2013-01-18 20:56:00,
2013-01-18 14:00:00,51.1,25.6,29.78,West,270,6.3,9.2,37,0.00,,,0.00,WUHU216HW,2013-01-18 21:00:00,
2013-01-18 14:01:00,51.1,25.6,29.78,West,270,6.5,9.2,37,0.00,,,0.00,WUHU216HW,2013-01-18 21:01:00,
2013-01-18 14:05:00,51.5,25.2,29.78,West,270,7.2,9.2,36,0.00,,,0.00,WUHU216HW,2013-01-18 21:05:00,
2013-01-18 14:07:00,51.3,25.0,29.78,West,270,7.2,9.2,36,0.00,,,0.00,WUHU216HW,2013-01-18 21:07:00,
2013-01-18 14:10:00,51.5,24.5,29.78,West,270,5.1,8.7,35,0.00,,,0.00,WUHU216HW,2013-01-18 21:10:00,
2013-01-18 14:12:00,51.5,25.2,29.78,North,0,6.9,8.7,36,0.00,,,0.00,WUHU216HW,2013-01-18 21:12:00,
2013-01-18 14:15:00,51.5,25.2,29.78,WNW,293,3.4,7.2,36,0.00,,,0.00,WUHU216HW,2013-01-18 21:15:00,
2013-01-18 14:16:00,51.5,25.2,29.78,WNW,293,3.4,7.2,36,0.00,,,0.00,WUHU216HW,2013-01-18 21:16:00,
2013-01-18 14:17:00,51.5,25.9,29.78,SW,225,3.4,6.9,37,0.00,,,0.00,WUHU216HW,2013-01-18 21:17:00,
2013-01-18 14:20:00,51.7,25.4,29.78,WNW,293,1.8,6.9,36,0.00,,,0.00,WUHU216HW,2013-01-18 21:20:00,
2013-01-18 14:21:00,51.7,25.4,29.78,WNW,293,1.8,6.9,36,0.00,,,0.00,WUHU216HW,2013-01-18 21:21:00,
2013-01-18 14:22:00,51.7,25.4,29.78,WSW,248,5.4,6.3,36,0.00,,,0.00,WUHU216HW,2013-01-18 21:22:00,
2013-01-18 14:25:00,51.7,25.4,29.78,West,270,4.3,6.9,36,0.00,,,0.00,WUHU216HW,2013-01-18 21:25:00,
2013-01-18 14:26:00,51.7,25.4,29.78,West,270,4.3,6.9,36,0.00,,,0.00,WUHU216HW,2013-01-18 21:26:00,
2013-01-18 14:27:00,51.5,25.2,29.78,WNW,293,6.7,6.9,36,0.00,,,0.00,WUHU216HW,2013-01-18 21:27:00,
2013-01-18 14:30:00,51.3,25.0,29.78,West,270,5.4,6.9,36,0.00,,,0.00,WUHU216HW,2013-01-18 21:30:00,
2013-01-18 14:31:00,51.3,25.0,29.78,West,270,5.4,6.9,36,0.00,,,0.00,WUHU216HW,2013-01-18 21:31:00,
2013-01-18 14:32:00,51.3,23.7,29.78,NW,315,5.8,6.9,34,0.00,,,0.00,WUHU216HW,2013-01-18 21:32:00,
2013-01-18 14:36:00,51.1,23.5,29.78,NW,315,7.2,7.2,34,0.00,,,0.00,WUHU216HW,2013-01-18 21:36:00,
2013-01-18 14:37:00,51.1,24.2,29.78,WNW,293,9.4,9.4,35,0.00,,,0.00,WUHU216HW,2013-01-18 21:37:00,
2013-01-18 14:40:00,50.9,23.3,29.79,WNW,293,7.2,9.4,34,0.00,,,0.00,WUHU216HW,2013-01-18 21:40:00,
2013-01-18 14:41:00,50.9,23.3,29.79,WNW,293,7.2,9.4,34,0.00,,,0.00,WUHU216HW,2013-01-18 21:41:00,
2013-01-18 14:42:00,50.8,24.6,29.78,West,270,8.5,9.4,36,0.00,,,0.00,WUHU216HW,2013-01-18 21:42:00,
2013-01-18 14:45:00,50.8,23.2,29.78,NW,315,6.9,9.4,34,0.00,,,0.00,WUHU216HW,2013-01-18 21:45:00,
2013-01-18 14:46:00,50.8,23.2,29.78,NW,315,6.9,9.4,34,0.00,,,0.00,WUHU216HW,2013-01-18 21:46:00,
2013-01-18 14:47:00,50.6,23.1,29.79,West,270,4.9,8.5,34,0.00,,,0.00,WUHU216HW,2013-01-18 21:47:00,
2013-01-18 14:51:00,50.2,24.0,29.79,West,270,6.9,8.5,36,0.00,,,0.00,WUHU216HW,2013-01-18 21:51:00,
2013-01-18 14:52:00,50.0,24.0,29.79,WNW,293,6.5,8.5,36,0.00,,,0.00,WUHU216HW,2013-01-18 21:52:00,
2013-01-18 14:56:00,49.9,23.8,29.79,WNW,293,6.9,8.3,36,0.00,,,0.00,WUHU216HW,2013-01-18 21:56:00,
2013-01-18 14:57:00,49.7,23.6,29.79,NW,315,4.0,8.3,36,0.00,,,0.00,WUHU216HW,2013-01-18 21:57:00,
2013-01-18 15:01:00,49.3,23.3,29.79,WSW,248,5.1,6.9,36,0.00,,,0.00,WUHU216HW,2013-01-18 22:01:00,
2013-01-18 15:02:00,49.3,23.3,29.79,NW,315,5.6,6.9,36,0.00,,,0.00,WUHU216HW,2013-01-18 22:02:00,
2013-01-18 15:03:00,49.3,23.3,29.79,NW,315,5.6,6.9,36,0.00,,,0.00,WUHU216HW,2013-01-18 22:03:00,
2013-01-18 15:06:00,49.0,23.7,29.79,WNW,293,2.7,7.6,37,0.00,,,0.00,WUHU216HW,2013-01-18 22:06:00,
2013-01-18 15:07:00,49.0,23.7,29.79,NNW,338,4.0,7.6,37,0.00,,,0.00,WUHU216HW,2013-01-18 22:07:00,
2013-01-18 15:08:00,48.8,23.5,29.79,NW,315,6.3,7.6,37,0.00,,,0.00,WUHU216HW,2013-01-18 22:08:00,
2013-01-18 15:11:00,48.6,23.3,29.79,NW,315,5.4,7.6,37,0.00,,,0.00,WUHU216HW,2013-01-18 22:11:00,
2013-01-18 15:12:00,48.4,23.2,29.79,WNW,293,6.5,7.6,37,0.00,,,0.00,WUHU216HW,2013-01-18 22:12:00,
2013-01-18 15:13:00,48.4,23.2,29.79,NW,315,4.0,7.6,37,0.00,,,0.00,WUHU216HW,2013-01-18 22:13:00,
2013-01-18 15:16:00,48.2,23.7,29.79,WNW,293,8.7,8.7,38,0.00,,,0.00,WUHU216HW,2013-01-18 22:16:00,
2013-01-18 15:18:00,48.1,23.5,29.79,West,270,7.8,8.7,38,0.00,,,0.00,WUHU216HW,2013-01-18 22:18:00,
2013-01-18 15:21:00,47.7,23.2,29.79,NW,315,4.0,8.7,38,0.00,,,0.00,WUHU216HW,2013-01-18 22:21:00,
2013-01-18 15:23:00,47.5,23.0,29.79,WSW,248,4.9,8.7,38,0.00,,,0.00,WUHU216HW,2013-01-18 22:23:00,
2013-01-18 15:26:00,47.3,22.9,29.79,WNW,293,5.1,8.1,38,0.00,,,0.00,WUHU216HW,2013-01-18 22:26:00,
2013-01-18 15:28:00,47.3,22.9,29.79,NW,315,5.1,8.1,38,0.00,,,0.00,WUHU216HW,2013-01-18 22:28:00,
2013-01-18 15:31:00,47.2,22.7,29.79,West,270,5.1,8.1,38,0.00,,,0.00,WUHU216HW,2013-01-18 22:31:00,
2013-01-18 15:33:00,47.0,22.6,29.80,North,0,3.4,8.1,38,0.00,,,0.00,WUHU216HW,2013-01-18 22:33:00,
2013-01-18 15:34:00,46.8,22.4,29.80,WNW,293,5.1,8.1,38,0.00,,,0.00,WUHU216HW,2013-01-18 22:34:00,
2013-01-18 15:36:00,46.8,22.4,29.80,West,270,6.0,8.1,38,0.00,,,0.00,WUHU216HW,2013-01-18 22:36:00,
2013-01-18 15:38:00,46.6,22.2,29.80,WNW,293,4.7,8.1,38,0.00,,,0.00,WUHU216HW,2013-01-18 22:38:00,
2013-01-18 15:39:00,46.6,22.2,29.80,NNW,338,3.6,8.1,38,0.00,,,0.00,WUHU216HW,2013-01-18 22:39:00,
2013-01-18 15:41:00,46.4,22.1,29.80,West,270,6.5,7.8,38,0.00,,,0.00,WUHU216HW,2013-01-18 22:41:00,
2013-01-18 15:42:00,46.4,22.1,29.80,West,270,6.5,7.8,38,0.00,,,0.00,WUHU216HW,2013-01-18 22:42:00,
2013-01-18 15:43:00,46.4,22.8,29.80,West,270,6.9,7.8,39,0.00,,,0.00,WUHU216HW,2013-01-18 22:43:00,
2013-01-18 15:45:00,46.4,22.8,29.80,WNW,293,4.7,7.8,39,0.00,,,0.00,WUHU216HW,2013-01-18 22:45:00,
2013-01-18 15:46:00,46.4,22.8,29.80,WNW,293,3.6,7.8,39,0.00,,,0.00,WUHU216HW,2013-01-18 22:46:00,
2013-01-18 15:47:00,46.4,22.8,29.80,WNW,293,3.6,7.8,39,0.00,,,0.00,WUHU216HW,2013-01-18 22:47:00,
2013-01-18 15:48:00,46.4,22.8,29.80,WSW,248,2.9,6.9,39,0.00,,,0.00,WUHU216HW,2013-01-18 22:48:00,
2013-01-18 15:50:00,46.4,22.8,29.80,West,270,4.0,6.9,39,0.00,,,0.00,WUHU216HW,2013-01-18 22:50:00,
2013-01-18 15:51:00,46.3,22.6,29.80,SW,225,3.1,6.9,39,0.00,,,0.00,WUHU216HW,2013-01-18 22:51:00,
2013-01-18 15:52:00,46.4,22.8,29.80,West,270,3.4,4.7,39,0.00,,,0.00,WUHU216HW,2013-01-18 22:52:00,
2013-01-18 15:53:00,46.3,22.6,29.80,West,270,4.0,4.7,39,0.00,,,0.00,WUHU216HW,2013-01-18 22:53:00,
2013-01-18 15:55:00,46.1,22.4,29.80,WSW,248,3.4,4.0,39,0.00,,,0.00,WUHU216HW,2013-01-18 22:55:00,
2013-01-18 15:56:00,46.1,23.0,29.80,WSW,248,2.0,4.0,40,0.00,,,0.00,WUHU216HW,2013-01-18 22:56:00,
2013-01-18 15:57:00,45.9,23.0,29.80,WSW,248,2.0,4.0,40,0.00,,,0.00,WUHU216HW,2013-01-18 22:57:00,
2013-01-18 15:58:00,45.9,23.0,29.80,WSW,248,2.5,4.0,40,0.00,,,0.00,WUHU216HW,2013-01-18 22:58:00,
2013-01-18 16:00:00,45.9,23.0,29.79,WSW,248,1.3,4.7,40,0.00,,,0.00,WUHU216HW,2013-01-18 23:00:00,
2013-01-18 16:01:00,45.9,23.0,29.80,WSW,248,1.3,4.7,40,0.00,,,0.00,WUHU216HW,2013-01-18 23:01:00,
2013-01-18 16:02:00,45.7,22.8,29.80,West,270,2.7,4.7,40,0.00,,,0.00,WUHU216HW,2013-01-18 23:02:00,
2013-01-18 16:04:00,45.7,22.8,29.80,West,270,2.0,4.7,40,0.00,,,0.00,WUHU216HW,2013-01-18 23:04:00,
2013-01-18 16:05:00,45.7,22.8,29.80,WSW,248,1.8,4.7,40,0.00,,,0.00,WUHU216HW,2013-01-18 23:05:00,
2013-01-18 16:07:00,45.5,22.6,29.80,WNW,293,1.6,4.7,40,0.00,,,0.00,WUHU216HW,2013-01-18 23:07:00,
2013-01-18 16:09:00,45.5,22.6,29.80,WSW,248,1.6,4.7,40,0.00,,,0.00,WUHU216HW,2013-01-18 23:09:00,
2013-01-18 16:10:00,45.4,23.0,29.80,West,270,0.7,2.7,41,0.00,,,0.00,WUHU216HW,2013-01-18 23:10:00,
2013-01-18 16:12:00,45.4,23.0,29.80,WSW,248,2.5,2.7,41,0.00,,,0.00,WUHU216HW,2013-01-18 23:12:00,
2013-01-18 16:14:00,45.4,23.0,29.80,WSW,248,4.3,4.3,41,0.00,,,0.00,WUHU216HW,2013-01-18 23:14:00,
2013-01-18 16:15:00,45.4,23.0,29.80,West,270,1.1,4.3,41,0.00,,,0.00,WUHU216HW,2013-01-18 23:15:00,
2013-01-18 16:17:00,45.0,22.7,29.80,WNW,293,2.2,5.4,41,0.00,,,0.00,WUHU216HW,2013-01-18 23:17:00,
2013-01-18 16:19:00,45.0,23.2,29.79,West,270,0.7,5.4,42,0.00,,,0.00,WUHU216HW,2013-01-18 23:19:00,
2013-01-18 16:20:00,44.8,23.1,29.80,West,270,2.5,5.4,42,0.00,,,0.00,WUHU216HW,2013-01-18 23:20:00,
2013-01-18 16:22:00,44.8,23.1,29.80,WNW,293,3.4,5.4,42,0.00,,,0.00,WUHU216HW,2013-01-18 23:22:00,
2013-01-18 16:24:00,44.6,22.9,29.80,West,270,2.7,5.4,42,0.00,,,0.00,WUHU216HW,2013-01-18 23:24:00,
2013-01-18 16:25:00,44.5,22.7,29.80,WNW,293,0.9,5.4,42,0.00,,,0.00,WUHU216HW,2013-01-18 23:25:00,
2013-01-18 16:27:00,44.5,22.7,29.80,NW,315,1.8,3.6,42,0.00,,,0.00,WUHU216HW,2013-01-18 23:27:00,
2013-01-18 16:29:00,44.5,22.7,29.80,ENE,68,0.4,3.6,42,0.00,,,0.00,WUHU216HW,2013-01-18 23:29:00,
2013-01-18 16:30:00,44.5,22.7,29.80,ENE,68,2.0,3.6,42,0.00,,,0.00,WUHU216HW,2013-01-18 23:30:00,
2013-01-18 16:32:00,44.3,22.5,29.80,East,90,0.9,3.6,42,0.00,,,0.00,WUHU216HW,2013-01-18 23:32:00,
2013-01-18 16:34:00,44.3,23.0,29.80,SE,135,1.1,3.1,43,0.00,,,0.00,WUHU216HW,2013-01-18 23:34:00,
2013-01-18 16:36:00,44.1,23.0,29.80,SW,225,1.3,2.5,43,0.00,,,0.00,WUHU216HW,2013-01-18 23:36:00,
2013-01-18 16:37:00,44.1,23.0,29.80,SSW,203,2.0,2.5,43,0.00,,,0.00,WUHU216HW,2013-01-18 23:37:00,
2013-01-18 16:38:00,44.1,23.0,29.80,SSW,203,2.0,2.5,43,0.00,,,0.00,WUHU216HW,2013-01-18 23:38:00,
2013-01-18 16:39:00,43.9,23.3,29.80,SW,225,3.1,3.1,44,0.00,,,0.00,WUHU216HW,2013-01-18 23:39:00,
2013-01-18 16:41:00,43.7,23.1,29.80,South,180,0.4,3.1,44,0.00,,,0.00,WUHU216HW,2013-01-18 23:41:00,
2013-01-18 16:42:00,43.6,23.0,29.80,SSW,203,0.4,3.1,44,0.00,,,0.00,WUHU216HW,2013-01-18 23:42:00,
2013-01-18 16:43:00,43.6,23.0,29.80,SSW,203,1.6,3.1,44,0.00,,,0.00,WUHU216HW,2013-01-18 23:43:00,
2013-01-18 16:44:00,43.6,23.0,29.80,SW,225,1.3,3.1,44,0.00,,,0.00,WUHU216HW,2013-01-18 23:44:00,
2013-01-18 16:46:00,43.4,22.8,29.80,SSE,158,0.4,3.1,44,0.00,,,0.00,WUHU216HW,2013-01-18 23:46:00,
2013-01-18 16:47:00,43.2,22.7,29.80,SW,225,1.1,3.1,44,0.00,,,0.00,WUHU216HW,2013-01-18 23:47:00,
2013-01-18 16:48:00,43.2,22.7,29.80,SW,225,1.8,3.1,44,0.00,,,0.00,WUHU216HW,2013-01-18 23:48:00,
2013-01-18 16:49:00,43.0,22.5,29.80,SSW,203,1.8,1.8,44,0.00,,,0.00,WUHU216HW,2013-01-18 23:49:00,
2013-01-18 16:51:00,42.8,22.9,29.80,SW,225,1.1,1.8,45,0.00,,,0.00,WUHU216HW,2013-01-18 23:51:00,
2013-01-18 16:52:00,42.8,22.9,29.80,SSW,203,1.6,1.8,45,0.00,,,0.00,WUHU216HW,2013-01-18 23:52:00,
2013-01-18 16:53:00,42.8,22.9,29.80,SW,225,1.3,1.8,45,0.00,,,0.00,WUHU216HW,2013-01-18 23:53:00,
2013-01-18 16:55:00,42.8,22.9,29.80,SW,225,1.1,2.2,45,0.00,,,0.00,WUHU216HW,2013-01-18 23:55:00,
2013-01-18 16:56:00,42.7,22.7,29.80,SW,225,1.3,2.2,45,0.00,,,0.00,WUHU216HW,2013-01-18 23:56:00,
2013-01-18 16:57:00,42.7,22.7,29.80,SW,225,2.5,2.5,45,0.00,,,0.00,WUHU216HW,2013-01-18 23:57:00,
2013-01-18 16:58:00,42.5,22.5,29.80,SW,225,1.8,2.5,45,0.00,,,0.00,WUHU216HW,2013-01-18 23:58:00,
2013-01-18 17:00:00,42.5,22.5,29.80,WSW,248,1.6,2.5,45,0.00,,,0.00,WUHU216HW,2013-01-19 00:00:00,
2013-01-18 17:02:00,42.3,22.3,29.80,West,270,1.1,2.5,45,0.00,,,0.00,WUHU216HW,2013-01-19 00:02:00,
2013-01-18 17:03:00,42.5,22.5,29.80,SW,225,0.4,2.5,45,0.00,,,0.00,WUHU216HW,2013-01-19 00:03:00,
2013-01-18 17:05:00,42.5,22.5,29.80,WNW,293,1.1,2.5,45,0.00,,,0.00,WUHU216HW,2013-01-19 00:05:00,
2013-01-18 17:07:00,42.5,22.5,29.80,South,180,1.1,2.5,45,0.00,,,0.00,WUHU216HW,2013-01-19 00:07:00,
2013-01-18 17:08:00,42.5,22.5,29.80,SE,135,0.0,1.8,45,0.00,,,0.00,WUHU216HW,2013-01-19 00:08:00,
2013-01-18 17:10:00,42.7,22.7,29.80,East,90,1.1,1.1,45,0.00,,,0.00,WUHU216HW,2013-01-19 00:10:00,
2013-01-18 17:12:00,42.7,22.7,29.80,East,90,0.2,1.1,45,0.00,,,0.00,WUHU216HW,2013-01-19 00:12:00,
2013-01-18 17:13:00,42.8,22.9,29.80,SE,135,0.4,1.1,45,0.00,,,0.00,WUHU216HW,2013-01-19 00:13:00,
2013-01-18 17:15:00,42.8,22.9,29.80,SW,225,1.1,1.1,45,0.00,,,0.00,WUHU216HW,2013-01-19 00:15:00,
2013-01-18 17:17:00,42.8,22.9,29.80,South,180,1.1,1.1,45,0.00,,,0.00,WUHU216HW,2013-01-19 00:17:00,
2013-01-18 17:18:00,42.8,22.9,29.80,South,180,0.4,1.1,45,0.00,,,0.00,WUHU216HW,2013-01-19 00:18:00,
2013-01-18 17:20:00,42.8,22.9,29.80,WSW,248,1.1,1.1,45,0.00,,,0.00,WUHU216HW,2013-01-19 00:20:00,
2013-01-18 17:22:00,42.8,23.4,29.80,SSW,203,2.0,2.0,46,0.00,,,0.00,WUHU216HW,2013-01-19 00:22:00,
2013-01-18 17:23:00,42.8,23.4,29.80,SSW,203,2.0,2.0,46,0.00,,,0.00,WUHU216HW,2013-01-19 00:23:00,
2013-01-18 17:25:00,42.8,23.4,29.80,WSW,248,1.6,2.0,46,0.00,,,0.00,WUHU216HW,2013-01-19 00:25:00,
2013-01-18 17:27:00,42.7,23.2,29.80,SW,225,0.2,2.0,46,0.00,,,0.00,WUHU216HW,2013-01-19 00:27:00,
2013-01-18 17:28:00,42.7,23.2,29.80,South,180,0.4,2.0,46,0.00,,,0.00,WUHU216HW,2013-01-19 00:28:00,
2013-01-18 17:29:00,42.7,23.2,29.80,South,180,0.4,2.0,46,0.00,,,0.00,WUHU216HW,2013-01-19 00:29:00,
2013-01-18 17:30:00,42.5,23.0,29.80,SSW,203,2.2,2.2,46,0.00,,,0.00,WUHU216HW,2013-01-19 00:30:00,
2013-01-18 17:33:00,42.3,22.9,29.80,West,270,0.7,4.7,46,0.00,,,0.00,WUHU216HW,2013-01-19 00:33:00,
2013-01-18 17:34:00,42.3,22.9,29.80,WNW,293,0.0,4.7,46,0.00,,,0.00,WUHU216HW,2013-01-19 00:34:00,
2013-01-18 17:36:00,42.1,23.2,29.80,South,180,1.3,4.7,47,0.00,,,0.00,WUHU216HW,2013-01-19 00:36:00,
2013-01-18 17:38:00,42.1,23.2,29.80,WSW,248,1.1,4.7,47,0.00,,,0.00,WUHU216HW,2013-01-19 00:38:00,
2013-01-18 17:39:00,42.1,23.2,29.80,SW,225,0.4,4.7,47,0.00,,,0.00,WUHU216HW,2013-01-19 00:39:00,
2013-01-18 17:41:00,42.1,23.2,29.80,WSW,248,1.8,4.7,47,0.00,,,0.00,WUHU216HW,2013-01-19 00:41:00,
2013-01-18 17:43:00,42.1,23.2,29.80,SW,225,1.3,2.2,47,0.00,,,0.00,WUHU216HW,2013-01-19 00:43:00,
2013-01-18 17:44:00,42.1,23.2,29.80,SW,225,1.3,2.2,47,0.00,,,0.00,WUHU216HW,2013-01-19 00:44:00,
2013-01-18 17:47:00,41.9,23.0,29.80,SW,225,0.4,2.2,47,0.00,,,0.00,WUHU216HW,2013-01-19 00:47:00,
2013-01-18 17:49:00,41.9,23.0,29.80,SSW,203,1.1,2.2,47,0.00,,,0.00,WUHU216HW,2013-01-19 00:49:00,
2013-01-18 17:52:00,41.9,22.5,29.80,NW,315,0.0,1.3,46,0.00,,,0.00,WUHU216HW,2013-01-19 00:52:00,
2013-01-18 17:54:00,42.1,22.7,29.80,SSW,203,1.3,1.3,46,0.00,,,0.00,WUHU216HW,2013-01-19 00:54:00,
2013-01-18 17:57:00,42.1,22.7,29.80,SSW,203,1.1,1.8,46,0.00,,,0.00,WUHU216HW,2013-01-19 00:57:00,
2013-01-18 17:59:00,42.1,22.7,29.80,WSW,248,1.6,2.0,46,0.00,,,0.00,WUHU216HW,2013-01-19 00:59:00,
2013-01-18 18:02:00,42.1,22.7,29.80,SSE,158,0.9,2.0,46,0.00,,,0.00,WUHU216HW,2013-01-19 01:02:00,
2013-01-18 18:04:00,42.1,22.7,29.80,SSW,203,0.7,2.0,46,0.00,,,0.00,WUHU216HW,2013-01-19 01:04:00,
2013-01-18 18:07:00,42.1,22.7,29.80,SW,225,1.8,2.5,46,0.00,,,0.00,WUHU216HW,2013-01-19 01:07:00,
2013-01-18 18:09:00,42.1,22.7,29.80,SW,225,1.6,2.5,46,0.00,,,0.00,WUHU216HW,2013-01-19 01:09:00,
2013-01-18 18:12:00,41.9,23.0,29.80,West,270,2.9,3.6,47,0.00,,,0.00,WUHU216HW,2013-01-19 01:12:00,
2013-01-18 18:14:00,41.9,23.0,29.80,WSW,248,1.3,3.6,47,0.00,,,0.00,WUHU216HW,2013-01-19 01:14:00,
2013-01-18 18:17:00,41.9,22.5,29.80,WSW,248,1.1,3.6,46,0.00,,,0.00,WUHU216HW,2013-01-19 01:17:00,
2013-01-18 18:19:00,41.9,22.5,29.80,SW,225,0.7,3.6,46,0.00,,,0.00,WUHU216HW,2013-01-19 01:19:00,
2013-01-18 18:20:00,41.9,22.5,29.80,SW,225,0.7,3.6,46,0.00,,,0.00,WUHU216HW,2013-01-19 01:20:00,
2013-01-18 18:22:00,41.9,22.5,29.80,SSW,203,0.4,2.2,46,0.00,,,0.00,WUHU216HW,2013-01-19 01:22:00,
2013-01-18 18:24:00,41.9,22.5,29.81,WSW,248,1.6,2.2,46,0.00,,,0.00,WUHU216HW,2013-01-19 01:24:00,
2013-01-18 18:25:00,41.9,22.5,29.81,WSW,248,1.6,2.2,46,0.00,,,0.00,WUHU216HW,2013-01-19 01:25:00,
2013-01-18 18:27:00,41.9,23.0,29.81,SW,225,1.8,2.2,47,0.00,,,0.00,WUHU216HW,2013-01-19 01:27:00,
2013-01-18 18:29:00,42.1,23.2,29.81,SSW,203,1.1,2.2,47,0.00,,,0.00,WUHU216HW,2013-01-19 01:29:00,
2013-01-18 18:30:00,42.1,23.2,29.81,SSW,203,1.1,2.2,47,0.00,,,0.00,WUHU216HW,2013-01-19 01:30:00,
2013-01-18 18:32:00,42.1,23.2,29.80,SSE,158,1.1,1.8,47,0.00,,,0.00,WUHU216HW,2013-01-19 01:32:00,
2013-01-18 18:35:00,42.1,23.2,29.80,SSE,158,1.1,1.8,47,0.00,,,0.00,WUHU216HW,2013-01-19 01:35:00,
2013-01-18 18:37:00,42.3,23.4,29.80,SSE,158,0.2,1.6,47,0.00,,,0.00,WUHU216HW,2013-01-19 01:37:00,
2013-01-18 18:40:00,42.5,23.6,29.81,South,180,0.7,1.1,47,0.00,,,0.00,WUHU216HW,2013-01-19 01:40:00,
2013-01-18 18:43:00,42.5,23.6,29.81,SSW,203,1.1,1.1,47,0.00,,,0.00,WUHU216HW,2013-01-19 01:43:00,
2013-01-18 18:45:00,42.5,23.6,29.81,SW,225,3.4,3.4,47,0.00,,,0.00,WUHU216HW,2013-01-19 01:45:00,
2013-01-18 18:48:00,42.3,23.4,29.81,SW,225,1.1,3.4,47,0.00,,,0.00,WUHU216HW,2013-01-19 01:48:00,
2013-01-18 18:50:00,42.1,23.2,29.81,SW,225,1.8,3.4,47,0.00,,,0.00,WUHU216HW,2013-01-19 01:50:00,
2013-01-18 18:54:00,41.9,23.0,29.81,WSW,248,3.4,3.4,47,0.00,,,0.00,WUHU216HW,2013-01-19 01:54:00,
2013-01-18 18:55:00,41.9,23.0,29.81,West,270,1.1,3.4,47,0.00,,,0.00,WUHU216HW,2013-01-19 01:55:00,
2013-01-18 18:59:00,41.9,23.0,29.81,SSW,203,1.3,3.4,47,0.00,,,0.00,WUHU216HW,2013-01-19 01:59:00,
2013-01-18 19:00:00,41.8,22.9,29.81,SW,225,1.8,3.4,47,0.00,,,0.00,WUHU216HW,2013-01-19 02:00:00,
2013-01-18 19:04:00,41.8,22.9,29.81,SSW,203,1.6,2.5,47,0.00,,,0.00,WUHU216HW,2013-01-19 02:04:00,
2013-01-18 19:05:00,41.8,22.9,29.81,SW,225,1.8,2.5,47,0.00,,,0.00,WUHU216HW,2013-01-19 02:05:00,
2013-01-18 19:06:00,41.8,22.9,29.81,SW,225,1.8,2.5,47,0.00,,,0.00,WUHU216HW,2013-01-19 02:06:00,
2013-01-18 19:09:00,41.8,22.9,29.82,SW,225,1.1,2.5,47,0.00,,,0.00,WUHU216HW,2013-01-19 02:09:00,
2013-01-18 19:11:00,41.8,22.9,29.81,West,270,1.8,2.5,47,0.00,,,0.00,WUHU216HW,2013-01-19 02:11:00,
2013-01-18 19:14:00,41.6,22.7,29.82,WNW,293,2.0,2.5,47,0.00,,,0.00,WUHU216HW,2013-01-19 02:14:00,
2013-01-18 19:16:00,41.8,22.9,29.82,West,270,1.1,2.5,47,0.00,,,0.00,WUHU216HW,2013-01-19 02:16:00,
2013-01-18 19:17:00,41.8,22.9,29.82,West,270,1.1,2.5,47,0.00,,,0.00,WUHU216HW,2013-01-19 02:17:00,
2013-01-18 19:19:00,41.9,23.0,29.82,West,270,2.5,2.5,47,0.00,,,0.00,WUHU216HW,2013-01-19 02:19:00,
2013-01-18 19:21:00,42.1,23.2,29.82,WSW,248,2.5,2.5,47,0.00,,,0.00,WUHU216HW,2013-01-19 02:21:00,
2013-01-18 19:22:00,42.1,23.2,29.82,WSW,248,2.5,2.5,47,0.00,,,0.00,WUHU216HW,2013-01-19 02:22:00,
2013-01-18 19:24:00,42.3,22.9,29.82,WSW,248,3.1,4.5,46,0.00,,,0.00,WUHU216HW,2013-01-19 02:24:00,
2013-01-18 19:27:00,42.5,23.0,29.82,West,270,3.6,4.7,46,0.00,,,0.00,WUHU216HW,2013-01-19 02:27:00,
2013-01-18 19:30:00,42.5,23.0,29.82,WSW,248,4.3,4.7,46,0.00,,,0.00,WUHU216HW,2013-01-19 02:30:00,
2013-01-18 19:32:00,42.7,23.2,29.82,West,270,3.4,4.7,46,0.00,,,0.00,WUHU216HW,2013-01-19 02:32:00,
2013-01-18 19:33:00,42.7,23.2,29.82,West,270,3.4,4.7,46,0.00,,,0.00,WUHU216HW,2013-01-19 02:33:00,
2013-01-18 19:35:00,42.7,23.2,29.82,West,270,2.2,4.7,46,0.00,,,0.00,WUHU216HW,2013-01-19 02:35:00,
2013-01-18 19:37:00,42.7,23.2,29.82,WNW,293,1.8,4.3,46,0.00,,,0.00,WUHU216HW,2013-01-19 02:37:00,
2013-01-18 19:38:00,42.7,23.2,29.82,West,270,2.9,4.3,46,0.00,,,0.00,WUHU216HW,2013-01-19 02:38:00,
2013-01-18 19:40:00,42.7,23.2,29.83,WNW,293,3.1,3.4,46,0.00,,,0.00,WUHU216HW,2013-01-19 02:40:00,
2013-01-18 19:42:00,42.5,23.0,29.82,SSW,203,1.1,3.1,46,0.00,,,0.00,WUHU216HW,2013-01-19 02:42:00,
2013-01-18 19:43:00,42.5,23.0,29.82,SSW,203,1.1,3.1,46,0.00,,,0.00,WUHU216HW,2013-01-19 02:43:00,
2013-01-18 19:45:00,42.3,23.4,29.83,SW,225,2.0,3.1,47,0.00,,,0.00,WUHU216HW,2013-01-19 02:45:00,
2013-01-18 19:47:00,42.3,23.4,29.83,SSW,203,1.3,3.1,47,0.00,,,0.00,WUHU216HW,2013-01-19 02:47:00,
2013-01-18 19:48:00,42.3,23.4,29.83,SSW,203,1.3,3.1,47,0.00,,,0.00,WUHU216HW,2013-01-19 02:48:00,
2013-01-18 19:49:00,42.3,23.4,29.83,SSW,203,1.3,3.1,47,0.00,,,0.00,WUHU216HW,2013-01-19 02:49:00,
2013-01-18 19:51:00,42.1,23.2,29.83,South,180,0.4,2.0,47,0.00,,,0.00,WUHU216HW,2013-01-19 02:51:00,
2013-01-18 19:52:00,42.1,23.2,29.83,East,90,0.4,2.0,47,0.00,,,0.00,WUHU216HW,2013-01-19 02:52:00,
2013-01-18 19:53:00,42.1,23.2,29.83,East,90,0.4,2.0,47,0.00,,,0.00,WUHU216HW,2013-01-19 02:53:00,
2013-01-18 19:54:00,41.9,23.0,29.83,SSE,158,0.4,2.0,47,0.00,,,0.00,WUHU216HW,2013-01-19 02:54:00,
2013-01-18 19:56:00,41.9,23.6,29.84,SW,225,1.1,1.3,48,0.00,,,0.00,WUHU216HW,2013-01-19 02:56:00,
2013-01-18 19:57:00,41.8,23.4,29.83,SW,225,1.3,1.3,48,0.00,,,0.00,WUHU216HW,2013-01-19 02:57:00,
2013-01-18 19:58:00,41.8,23.4,29.84,SW,225,1.1,1.3,48,0.00,,,0.00,WUHU216HW,2013-01-19 02:58:00,
2013-01-18 19:59:00,41.8,23.4,29.84,SSW,203,0.4,1.3,48,0.00,,,0.00,WUHU216HW,2013-01-19 02:59:00,
2013-01-18 20:01:00,41.6,23.2,29.84,SSE,158,0.4,1.3,48,0.00,,,0.00,WUHU216HW,2013-01-19 03:01:00,
2013-01-18 20:02:00,41.6,23.2,29.84,SSE,158,0.2,1.3,48,0.00,,,0.00,WUHU216HW,2013-01-19 03:02:00,
2013-01-18 20:03:00,41.4,23.0,29.84,SSE,158,0.0,1.3,48,0.00,,,0.00,WUHU216HW,2013-01-19 03:03:00,
2013-01-18 20:04:00,41.4,23.0,29.84,SSE,158,0.0,1.3,48,0.00,,,0.00,WUHU216HW,2013-01-19 03:04:00,
2013-01-18 20:06:00,41.4,23.0,29.84,SSW,203,0.4,1.3,48,0.00,,,0.00,WUHU216HW,2013-01-19 03:06:00,
2013-01-18 20:07:00,41.2,22.9,29.84,SSW,203,1.3,1.3,48,0.00,,,0.00,WUHU216HW,2013-01-19 03:07:00,
2013-01-18 20:08:00,41.2,22.9,29.84,SW,225,1.8,1.8,48,0.00,,,0.00,WUHU216HW,2013-01-19 03:08:00,
2013-01-18 20:09:00,41.2,23.4,29.84,SW,225,2.2,2.2,49,0.00,,,0.00,WUHU216HW,2013-01-19 03:09:00,
2013-01-18 20:12:00,41.0,23.2,29.84,SW,225,2.0,3.4,49,0.00,,,0.00,WUHU216HW,2013-01-19 03:12:00,
2013-01-18 20:13:00,40.7,23.0,29.85,North,0,0.2,3.4,49,0.00,,,0.00,WUHU216HW,2013-01-19 03:13:00,
2013-01-18 20:14:00,40.7,23.0,29.84,SSE,158,0.9,3.4,49,0.00,,,0.00,WUHU216HW,2013-01-19 03:14:00,
2013-01-18 20:17:00,40.7,23.0,29.84,SSW,203,1.1,3.4,49,0.00,,,0.00,WUHU216HW,2013-01-19 03:17:00,
2013-01-18 20:18:00,40.5,22.8,29.84,WNW,293,1.6,3.4,49,0.00,,,0.00,WUHU216HW,2013-01-19 03:18:00,
2013-01-18 20:19:00,40.5,22.8,29.85,WSW,248,1.1,3.4,49,0.00,,,0.00,WUHU216HW,2013-01-19 03:19:00,
2013-01-18 20:21:00,40.3,22.6,29.84,SSE,158,1.3,2.0,49,0.00,,,0.00,WUHU216HW,2013-01-19 03:21:00,
2013-01-18 20:22:00,40.3,22.6,29.84,SW,225,1.3,2.0,49,0.00,,,0.00,WUHU216HW,2013-01-19 03:22:00,
2013-01-18 20:23:00,40.1,22.4,29.84,SSW,203,1.1,2.0,49,0.00,,,0.00,WUHU216HW,2013-01-19 03:23:00,
2013-01-18 20:25:00,40.1,22.4,29.85,WSW,248,1.8,1.8,49,0.00,,,0.00,WUHU216HW,2013-01-19 03:25:00,
2013-01-18 20:27:00,40.1,23.0,29.85,West,270,0.0,1.8,50,0.00,,,0.00,WUHU216HW,2013-01-19 03:27:00,
2013-01-18 20:28:00,40.1,23.0,29.85,West,270,0.0,1.8,50,0.00,,,0.00,WUHU216HW,2013-01-19 03:28:00,
2013-01-18 20:30:00,40.0,22.8,29.85,NE,45,0.9,1.8,50,0.00,,,0.00,WUHU216HW,2013-01-19 03:30:00,
2013-01-18 20:32:00,40.0,22.8,29.85,NE,45,0.4,2.0,50,0.00,,,0.00,WUHU216HW,2013-01-19 03:32:00,
2013-01-18 20:33:00,40.0,22.8,29.85,East,90,0.2,2.0,50,0.00,,,0.00,WUHU216HW,2013-01-19 03:33:00,
2013-01-18 20:35:00,40.0,22.8,29.85,South,180,1.1,2.0,50,0.00,,,0.00,WUHU216HW,2013-01-19 03:35:00,
2013-01-18 20:37:00,40.0,23.2,29.85,SE,135,0.2,2.0,51,0.00,,,0.00,WUHU216HW,2013-01-19 03:37:00,
2013-01-18 20:38:00,39.8,23.0,29.85,WSW,248,0.7,2.0,51,0.00,,,0.00,WUHU216HW,2013-01-19 03:38:00,
2013-01-18 20:39:00,39.8,23.0,29.85,SE,135,0.7,2.0,51,0.00,,,0.00,WUHU216HW,2013-01-19 03:39:00,
2013-01-18 20:40:00,39.8,23.0,29.85,SE,135,1.1,2.0,51,0.00,,,0.00,WUHU216HW,2013-01-19 03:40:00,
2013-01-18 20:42:00,39.6,23.3,29.85,SSE,158,1.1,1.3,52,0.00,,,0.00,WUHU216HW,2013-01-19 03:42:00,
2013-01-18 20:43:00,39.6,23.3,29.85,SSW,203,0.7,1.3,52,0.00,,,0.00,WUHU216HW,2013-01-19 03:43:00,
2013-01-18 20:44:00,39.6,23.3,29.85,SW,225,1.1,1.3,52,0.00,,,0.00,WUHU216HW,2013-01-19 03:44:00,
2013-01-18 20:45:00,39.4,23.1,29.85,SW,225,1.8,1.8,52,0.00,,,0.00,WUHU216HW,2013-01-19 03:45:00,
2013-01-18 20:47:00,39.4,23.1,29.85,SW,225,1.8,1.8,52,0.00,,,0.00,WUHU216HW,2013-01-19 03:47:00,
2013-01-18 20:48:00,39.2,23.1,29.85,SW,225,2.0,2.0,52,0.00,,,0.00,WUHU216HW,2013-01-19 03:48:00,
2013-01-18 20:49:00,39.2,23.1,29.85,SW,225,3.4,3.4,52,0.00,,,0.00,WUHU216HW,2013-01-19 03:49:00,
2013-01-18 20:50:00,39.2,23.1,29.85,SW,225,2.5,3.4,52,0.00,,,0.00,WUHU216HW,2013-01-19 03:50:00,
2013-01-18 20:52:00,39.2,23.1,29.85,SW,225,2.5,3.4,52,0.00,,,0.00,WUHU216HW,2013-01-19 03:52:00,
2013-01-18 20:53:00,39.1,22.9,29.85,SSW,203,1.8,3.4,52,0.00,,,0.00,WUHU216HW,2013-01-19 03:53:00,
2013-01-18 20:55:00,39.1,22.9,29.85,SW,225,2.2,4.0,52,0.00,,,0.00,WUHU216HW,2013-01-19 03:55:00,
2013-01-18 20:56:00,39.1,22.9,29.85,WSW,248,1.1,4.0,52,0.00,,,0.00,WUHU216HW,2013-01-19 03:56:00,
2013-01-18 20:57:00,39.1,22.9,29.86,West,270,1.1,4.0,52,0.00,,,0.00,WUHU216HW,2013-01-19 03:57:00,
2013-01-18 20:58:00,38.9,22.7,29.86,South,180,2.5,4.0,52,0.00,,,0.00,WUHU216HW,2013-01-19 03:58:00,
2013-01-18 21:00:00,38.9,23.1,29.85,SSW,203,0.7,4.0,53,0.00,,,0.00,WUHU216HW,2013-01-19 04:00:00,
2013-01-18 21:02:00,38.9,23.1,29.86,SSW,203,1.8,4.0,53,0.00,,,0.00,WUHU216HW,2013-01-19 04:02:00,
2013-01-18 21:03:00,38.9,23.1,29.86,WNW,293,1.1,4.0,53,0.00,,,0.00,WUHU216HW,2013-01-19 04:03:00,
2013-01-18 21:05:00,38.9,23.6,29.86,SSE,158,1.1,2.5,54,0.00,,,0.00,WUHU216HW,2013-01-19 04:05:00,
2013-01-18 21:07:00,38.9,23.1,29.87,West,270,0.9,2.5,53,0.00,,,0.00,WUHU216HW,2013-01-19 04:07:00,
2013-01-18 21:08:00,38.9,23.1,29.87,West,270,0.4,2.0,53,0.00,,,0.00,WUHU216HW,2013-01-19 04:08:00,
2013-01-18 21:10:00,38.9,23.1,29.86,SSE,158,0.2,1.8,53,0.00,,,0.00,WUHU216HW,2013-01-19 04:10:00,
2013-01-18 21:12:00,38.9,23.1,29.86,ESE,113,0.9,1.1,53,0.00,,,0.00,WUHU216HW,2013-01-19 04:12:00,
2013-01-18 21:13:00,38.9,23.1,29.86,South,180,2.2,2.2,53,0.00,,,0.00,WUHU216HW,2013-01-19 04:13:00,
2013-01-18 21:16:00,38.7,23.0,29.87,WSW,248,0.4,2.2,53,0.00,,,0.00,WUHU216HW,2013-01-19 04:16:00,
2013-01-18 21:17:00,38.7,23.0,29.87,WSW,248,1.3,2.2,53,0.00,,,0.00,WUHU216HW,2013-01-19 04:17:00,
2013-01-18 21:18:00,38.7,23.0,29.87,SW,225,4.7,4.7,53,0.00,,,0.00,WUHU216HW,2013-01-19 04:18:00,
2013-01-18 21:19:00,38.7,23.0,29.87,WNW,293,0.4,4.7,53,0.00,,,0.00,WUHU216HW,2013-01-19 04:19:00,
2013-01-18 21:21:00,38.5,22.8,29.87,NNW,338,0.4,4.7,53,0.00,,,0.00,WUHU216HW,2013-01-19 04:21:00,
2013-01-18 21:22:00,38.5,22.8,29.88,NNW,338,0.9,4.7,53,0.00,,,0.00,WUHU216HW,2013-01-19 04:22:00,
2013-01-18 21:23:00,38.3,22.6,29.87,West,270,1.1,4.7,53,0.00,,,0.00,WUHU216HW,2013-01-19 04:23:00,
2013-01-18 21:24:00,38.3,22.6,29.87,SW,225,1.1,4.7,53,0.00,,,0.00,WUHU216HW,2013-01-19 04:24:00,
2013-01-18 21:26:00,38.3,22.6,29.87,WSW,248,1.3,4.7,53,0.00,,,0.00,WUHU216HW,2013-01-19 04:26:00,
2013-01-18 21:27:00,38.2,22.5,29.88,West,270,1.8,4.7,53,0.00,,,0.00,WUHU216HW,2013-01-19 04:27:00,
2013-01-18 21:28:00,38.2,22.5,29.88,WSW,248,1.1,1.8,53,0.00,,,0.00,WUHU216HW,2013-01-19 04:28:00,
2013-01-18 21:30:00,38.2,22.5,29.88,WSW,248,1.1,1.8,53,0.00,,,0.00,WUHU216HW,2013-01-19 04:30:00,
2013-01-18 21:31:00,38.2,22.5,29.88,WNW,293,1.1,1.8,53,0.00,,,0.00,WUHU216HW,2013-01-19 04:31:00,
2013-01-18 21:32:00,38.2,22.5,29.88,WSW,248,1.1,1.8,53,0.00,,,0.00,WUHU216HW,2013-01-19 04:32:00,
2013-01-18 21:33:00,38.0,22.3,29.88,West,270,1.3,1.8,53,0.00,,,0.00,WUHU216HW,2013-01-19 04:33:00,
2013-01-18 21:35:00,38.0,22.3,29.88,West,270,1.1,1.8,53,0.00,,,0.00,WUHU216HW,2013-01-19 04:35:00,
2013-01-18 21:37:00,38.0,22.3,29.88,WSW,248,0.7,1.8,53,0.00,,,0.00,WUHU216HW,2013-01-19 04:37:00,
2013-01-18 21:38:00,38.0,22.3,29.88,SW,225,0.4,1.3,53,0.00,,,0.00,WUHU216HW,2013-01-19 04:38:00,
2013-01-18 21:40:00,38.0,22.3,29.88,SSW,203,1.1,1.3,53,0.00,,,0.00,WUHU216HW,2013-01-19 04:40:00,
2013-01-18 21:42:00,38.0,22.3,29.88,NW,315,1.1,1.3,53,0.00,,,0.00,WUHU216HW,2013-01-19 04:42:00,
2013-01-18 21:43:00,38.0,22.3,29.88,WSW,248,1.8,1.8,53,0.00,,,0.00,WUHU216HW,2013-01-19 04:43:00,
2013-01-18 21:46:00,38.0,22.3,29.88,West,270,1.3,1.8,53,0.00,,,0.00,WUHU216HW,2013-01-19 04:46:00,
2013-01-18 21:47:00,38.0,22.3,29.88,NW,315,1.1,1.8,53,0.00,,,0.00,WUHU216HW,2013-01-19 04:47:00,
2013-01-18 21:48:00,38.0,22.3,29.88,WSW,248,2.2,2.2,53,0.00,,,0.00,WUHU216HW,2013-01-19 04:48:00,
2013-01-18 21:51:00,38.0,22.3,29.88,WSW,248,1.6,2.2,53,0.00,,,0.00,WUHU216HW,2013-01-19 04:51:00,
2013-01-18 21:52:00,38.0,22.3,29.88,WSW,248,1.6,2.2,53,0.00,,,0.00,WUHU216HW,2013-01-19 04:52:00,
2013-01-18 21:53:00,38.0,22.3,29.88,WNW,293,1.1,2.2,53,0.00,,,0.00,WUHU216HW,2013-01-19 04:53:00,
2013-01-18 21:56:00,38.0,22.3,29.88,WSW,248,1.1,2.2,53,0.00,,,0.00,WUHU216HW,2013-01-19 04:56:00,
2013-01-18 21:57:00,38.0,22.3,29.88,WSW,248,0.0,1.8,53,0.00,,,0.00,WUHU216HW,2013-01-19 04:57:00,
2013-01-18 21:58:00,38.0,22.3,29.88,WSW,248,0.0,1.8,53,0.00,,,0.00,WUHU216HW,2013-01-19 04:58:00,
2013-01-18 21:59:00,38.0,22.3,29.88,WNW,293,1.1,1.8,53,0.00,,,0.00,WUHU216HW,2013-01-19 04:59:00,
2013-01-18 22:00:00,38.0,21.9,29.88,West,270,1.8,1.8,52,0.00,,,0.00,WUHU216HW,2013-01-19 05:00:00,
2013-01-18 22:01:00,38.0,21.9,29.88,West,270,1.8,1.8,52,0.00,,,0.00,WUHU216HW,2013-01-19 05:01:00,
2013-01-18 22:02:00,38.0,22.3,29.88,West,270,0.9,1.8,53,0.00,,,0.00,WUHU216HW,2013-01-19 05:02:00,
2013-01-18 22:03:00,37.8,22.1,29.88,WSW,248,1.6,1.8,53,0.00,,,0.00,WUHU216HW,2013-01-19 05:03:00,
2013-01-18 22:05:00,37.8,22.1,29.88,WSW,248,1.6,1.8,53,0.00,,,0.00,WUHU216HW,2013-01-19 05:05:00,
2013-01-18 22:06:00,37.8,22.1,29.88,WSW,248,2.5,2.5,53,0.00,,,0.00,WUHU216HW,2013-01-19 05:06:00,
2013-01-18 22:07:00,37.8,22.1,29.88,West,270,0.9,2.5,53,0.00,,,0.00,WUHU216HW,2013-01-19 05:07:00,
2013-01-18 22:08:00,37.8,22.1,29.88,West,270,0.0,2.5,53,0.00,,,0.00,WUHU216HW,2013-01-19 05:08:00,
2013-01-18 22:10:00,37.8,22.1,29.88,WNW,293,0.4,2.5,53,0.00,,,0.00,WUHU216HW,2013-01-19 05:10:00,
2013-01-18 22:11:00,37.6,22.0,29.88,NNW,338,0.2,2.5,53,0.00,,,0.00,WUHU216HW,2013-01-19 05:11:00,
2013-01-18 22:12:00,37.6,22.0,29.88,NNW,338,0.4,2.5,53,0.00,,,0.00,WUHU216HW,2013-01-19 05:12:00,
2013-01-18 22:13:00,37.6,21.5,29.88,NW,315,0.4,2.5,52,0.00,,,0.00,WUHU216HW,2013-01-19 05:13:00,
2013-01-18 22:16:00,37.4,21.8,29.88,NW,315,0.0,1.1,53,0.00,,,0.00,WUHU216HW,2013-01-19 05:16:00,
2013-01-18 22:17:00,37.4,21.8,29.88,NW,315,0.4,1.1,53,0.00,,,0.00,WUHU216HW,2013-01-19 05:17:00,
2013-01-18 22:18:00,37.4,21.8,29.88,West,270,1.1,1.1,53,0.00,,,0.00,WUHU216HW,2013-01-19 05:18:00,
2013-01-18 22:21:00,37.3,21.7,29.88,NNW,338,0.4,1.6,53,0.00,,,0.00,WUHU216HW,2013-01-19 05:21:00,
2013-01-18 22:22:00,37.1,21.5,29.88,SW,225,0.9,1.6,53,0.00,,,0.00,WUHU216HW,2013-01-19 05:22:00,
2013-01-18 22:24:00,37.1,21.5,29.88,SSW,203,1.1,1.6,53,0.00,,,0.00,WUHU216HW,2013-01-19 05:24:00,
2013-01-18 22:26:00,36.9,21.3,29.88,NW,315,0.7,1.6,53,0.00,,,0.00,WUHU216HW,2013-01-19 05:26:00,
2013-01-18 22:27:00,36.9,21.3,29.88,NW,315,0.4,1.6,53,0.00,,,0.00,WUHU216HW,2013-01-19 05:27:00,
2013-01-18 22:29:00,36.7,21.2,29.88,West,270,1.1,1.6,53,0.00,,,0.00,WUHU216HW,2013-01-19 05:29:00,
2013-01-18 22:32:00,36.4,21.2,29.88,West,270,2.2,2.2,54,0.00,,,0.00,WUHU216HW,2013-01-19 05:32:00,
2013-01-18 22:33:00,36.4,21.2,29.88,West,270,2.2,2.2,54,0.00,,,0.00,WUHU216HW,2013-01-19 05:33:00,
2013-01-18 22:34:00,36.4,21.2,29.88,West,270,3.8,3.8,54,0.00,,,0.00,WUHU216HW,2013-01-19 05:34:00,
2013-01-18 22:37:00,36.4,21.2,29.88,WNW,293,1.1,4.7,54,0.00,,,0.00,WUHU216HW,2013-01-19 05:37:00,
2013-01-18 22:38:00,36.4,21.2,29.88,WNW,293,1.1,4.7,54,0.00,,,0.00,WUHU216HW,2013-01-19 05:38:00,
2013-01-18 22:39:00,36.4,21.2,29.88,WNW,293,1.3,4.7,54,0.00,,,0.00,WUHU216HW,2013-01-19 05:39:00,
2013-01-18 22:42:00,36.9,21.8,29.89,NW,315,1.1,4.7,54,0.00,,,0.00,WUHU216HW,2013-01-19 05:42:00,
2013-01-18 22:43:00,36.9,21.8,29.89,NW,315,1.1,4.7,54,0.00,,,0.00,WUHU216HW,2013-01-19 05:43:00,
2013-01-18 22:44:00,36.9,21.3,29.89,WNW,293,1.8,4.7,53,0.00,,,0.00,WUHU216HW,2013-01-19 05:44:00,
2013-01-18 22:47:00,37.4,21.8,29.89,North,0,2.5,2.9,53,0.00,,,0.00,WUHU216HW,2013-01-19 05:47:00,
2013-01-18 22:48:00,37.4,21.8,29.89,North,0,2.5,2.9,53,0.00,,,0.00,WUHU216HW,2013-01-19 05:48:00,
2013-01-18 22:49:00,37.8,21.7,29.89,NW,315,2.5,2.9,52,0.00,,,0.00,WUHU216HW,2013-01-19 05:49:00,
2013-01-18 22:53:00,38.3,22.2,29.88,NW,315,3.6,5.1,52,0.00,,,0.00,WUHU216HW,2013-01-19 05:53:00,
2013-01-18 22:55:00,38.9,21.8,29.88,NNW,338,2.5,5.1,50,0.00,,,0.00,WUHU216HW,2013-01-19 05:55:00,
2013-01-18 22:58:00,39.4,22.3,29.89,NW,315,3.4,5.1,50,0.00,,,0.00,WUHU216HW,2013-01-19 05:58:00,
2013-01-18 23:00:00,40.0,22.2,29.89,NNW,338,4.0,5.1,49,0.00,,,0.00,WUHU216HW,2013-01-19 06:00:00,
2013-01-18 23:03:00,40.5,21.7,29.89,NNW,338,3.8,4.7,47,0.00,,,0.00,WUHU216HW,2013-01-19 06:03:00,
2013-01-18 23:05:00,40.9,22.1,29.89,NW,315,4.5,4.7,47,0.00,,,0.00,WUHU216HW,2013-01-19 06:05:00,
2013-01-18 23:08:00,41.2,22.4,29.89,NNW,338,4.5,4.5,47,0.00,,,0.00,WUHU216HW,2013-01-19 06:08:00,
2013-01-18 23:09:00,41.2,22.4,29.89,NNW,338,4.5,4.5,47,0.00,,,0.00,WUHU216HW,2013-01-19 06:09:00,
2013-01-18 23:10:00,41.4,22.5,29.89,NNE,23,3.1,4.5,47,0.00,,,0.00,WUHU216HW,2013-01-19 06:10:00,
2013-01-18 23:13:00,41.6,22.2,29.89,NNW,338,2.9,4.5,46,0.00,,,0.00,WUHU216HW,2013-01-19 06:13:00,
2013-01-18 23:14:00,41.6,22.2,29.89,NNW,338,2.9,4.5,46,0.00,,,0.00,WUHU216HW,2013-01-19 06:14:00,
2013-01-18 23:15:00,41.6,22.2,29.89,WNW,293,4.0,4.9,46,0.00,,,0.00,WUHU216HW,2013-01-19 06:15:00,
2013-01-18 23:18:00,41.6,22.2,29.89,NW,315,1.8,4.9,46,0.00,,,0.00,WUHU216HW,2013-01-19 06:18:00,
2013-01-18 23:19:00,41.6,22.2,29.89,NW,315,1.8,4.9,46,0.00,,,0.00,WUHU216HW,2013-01-19 06:19:00,
2013-01-18 23:20:00,41.4,22.1,29.90,West,270,2.7,4.9,46,0.00,,,0.00,WUHU216HW,2013-01-19 06:20:00,
2013-01-18 23:23:00,41.2,21.9,29.90,West,270,0.4,4.9,46,0.00,,,0.00,WUHU216HW,2013-01-19 06:23:00,
2013-01-18 23:24:00,41.2,21.9,29.90,West,270,0.0,4.0,46,0.00,,,0.00,WUHU216HW,2013-01-19 06:24:00,
2013-01-18 23:25:00,41.0,22.2,29.90,West,270,0.4,3.1,47,0.00,,,0.00,WUHU216HW,2013-01-19 06:25:00,
2013-01-18 23:28:00,40.7,21.9,29.90,WSW,248,0.4,2.9,47,0.00,,,0.00,WUHU216HW,2013-01-19 06:28:00,
2013-01-18 23:29:00,40.7,21.9,29.90,WNW,293,0.4,2.7,47,0.00,,,0.00,WUHU216HW,2013-01-19 06:29:00,
2013-01-18 23:30:00,40.7,21.9,29.90,West,270,0.9,1.3,47,0.00,,,0.00,WUHU216HW,2013-01-19 06:30:00,
2013-01-18 23:33:00,40.0,21.3,29.90,West,270,0.7,1.1,47,0.00,,,0.00,WUHU216HW,2013-01-19 06:33:00,
2013-01-18 23:34:00,40.0,21.3,29.90,West,270,0.7,1.1,47,0.00,,,0.00,WUHU216HW,2013-01-19 06:34:00,
2013-01-18 23:36:00,40.0,21.3,29.90,West,270,0.7,1.1,47,0.00,,,0.00,WUHU216HW,2013-01-19 06:36:00,
2013-01-18 23:39:00,39.6,20.9,29.90,WSW,248,2.2,2.2,47,0.00,,,0.00,WUHU216HW,2013-01-19 06:39:00,
2013-01-18 23:41:00,39.4,20.7,29.90,West,270,1.8,2.2,47,0.00,,,0.00,WUHU216HW,2013-01-19 06:41:00,
2013-01-18 23:44:00,39.2,20.6,29.90,West,270,0.4,2.2,47,0.00,,,0.00,WUHU216HW,2013-01-19 06:44:00,
2013-01-18 23:45:00,39.2,20.6,29.90,West,270,0.9,2.2,47,0.00,,,0.00,WUHU216HW,2013-01-19 06:45:00,
2013-01-18 23:46:00,39.1,20.4,29.91,West,270,0.4,2.2,47,0.00,,,0.00,WUHU216HW,2013-01-19 06:46:00,
2013-01-18 23:49:00,38.9,20.3,29.90,WSW,248,0.7,2.2,47,0.00,,,0.00,WUHU216HW,2013-01-19 06:49:00,
2013-01-18 23:50:00,38.9,20.3,29.91,WSW,248,0.4,2.0,47,0.00,,,0.00,WUHU216HW,2013-01-19 06:50:00,
2013-01-18 23:51:00,38.5,19.9,29.91,NW,315,0.7,2.0,47,0.00,,,0.00,WUHU216HW,2013-01-19 06:51:00,
2013-01-18 23:54:00,38.5,19.9,29.91,West,270,0.4,2.0,47,0.00,,,0.00,WUHU216HW,2013-01-19 06:54:00,
2013-01-18 23:55:00,38.3,19.8,29.91,SW,225,0.7,2.0,47,0.00,,,0.00,WUHU216HW,2013-01-19 06:55:00,
2013-01-18 23:57:00,38.2,20.2,29.91,SW,225,1.1,2.0,48,0.00,,,0.00,WUHU216HW,2013-01-19 06:57:00,
2013-01-18 23:59:00,38.0,20.0,29.91,WSW,248,0.4,2.9,48,0.00,,,0.00,WUHU216HW,2013-01-19 06:59:00,